GEFSSGP_con_prob3kmehi_138.txt.gz
EHI
6 9 17 19 10 2 0 0 0 0 0 0 0 0 0 0 0 0 0 0 1 2 2 4 8 8 7 10 16 19 16 11 6 3 1 0 0 0 0 0 0 0 0 0 0 0 0 0 0
4 6 11 12 6 1 0 0 0 1 1 1 0 0 0 0 0 0 0 0 1 2 3 6 10 10 8 10 13 14 12 8 4 2 1 0 0 0 0 0 0 0 0 0 0 0 0 0 0
1 2 4 3 1 0 0 0 0 1 2 2 1 0 0 0 0 1 1 1 1 3 7 11 14 12 11 12 11 8 6 4 2 1 0 0 0 0 0 0 0 0 0 0 0 0 0 0 0
1 1 1 0 0 0 0 0 0 2 3 2 1 0 1 1 1 3 4 3 3 7 11 16 16 13 13 13 11 7 3 2 1 0 0 0 0 0 0 0 0 0 0 0 0 0 0 0 0
2 1 0 0 0 0 0 0 1 2 3 2 1 1 2 3 4 6 7 5 7 11 15 19 18 14 12 11 8 5 2 1 0 0 0 0 0 0 0 0 0 0 0 0 0 0 0 0 0
2 1 0 0 0 0 0 1 1 2 2 1 0 3 7 9 9 10 9 7 7 11 16 20 19 15 11 8 5 3 1 0 0 0 0 0 0 0 0 0 0 0 0 0 0 0 0 0 0
1 0 0 0 0 0 1 2 2 2 1 0 0 4 16 23 20 17 15 11 8 10 15 18 17 14 10 6 4 2 1 0 0 0 0 0 0 0 0 0 0 0 0 0 0 0 0 0 0
0 0 0 0 0 0 1 2 1 1 0 0 0 5 24 40 37 29 24 18 14 13 14 14 14 12 9 6 4 2 1 0 0 0 0 0 0 0 0 0 0 0 0 0 0 0 0 0 0
0 0 0 0 0 0 1 1 1 0 0 2 5 14 36 56 54 44 35 27 22 19 17 16 14 12 8 5 3 2 0 0 0 0 0 0 0 0 0 0 0 0 0 0 0 0 0 0 0
0 0 0 0 0 0 1 1 0 0 0 5 18 37 57 67 63 52 43 36 31 26 22 19 16 13 8 5 3 2 0 0 0 0 0 0 0 0 0 0 0 0 0 0 0 0 0 0 0
0 0 0 0 0 0 0 0 0 0 1 7 28 56 72 72 62 50 43 40 37 31 26 23 21 16 10 5 3 1 0 0 0 0 0 0 0 0 0 0 0 0 0 0 0 0 0 0 0
0 0 0 0 0 0 0 0 0 1 1 9 32 61 73 68 57 45 39 38 37 35 30 26 24 19 14 8 4 1 0 0 1 1 0 0 0 0 0 0 0 0 0 0 0 0 0 0 0
0 0 0 0 0 0 0 1 2 3 3 13 36 59 67 61 50 40 37 36 37 38 35 30 27 23 19 13 6 3 1 1 1 1 0 0 0 0 0 0 0 0 0 0 0 0 0 0 0
0 0 0 0 0 0 0 1 4 6 6 16 38 55 59 54 44 38 36 36 38 40 39 34 30 28 24 15 8 5 3 2 1 1 0 0 0 0 0 0 0 0 0 0 0 0 0 0 0
0 0 0 0 0 0 0 2 6 9 10 18 33 46 51 50 44 39 37 36 38 41 42 37 31 30 26 17 10 8 5 2 1 0 0 0 0 0 0 0 0 0 0 0 0 0 0 0 0
0 0 0 0 0 0 0 2 5 8 11 17 28 38 45 47 44 40 36 35 38 43 45 40 32 30 28 19 12 9 6 3 1 0 0 0 0 0 0 0 0 0 0 0 0 0 0 0 0
0 0 0 0 0 0 0 1 2 4 7 15 26 34 41 45 44 40 36 36 42 46 48 44 36 31 28 20 13 8 4 2 1 0 1 1 0 0 0 0 0 0 0 0 0 0 0 0 0
0 0 0 0 0 0 0 1 2 2 5 13 23 33 40 43 44 43 40 40 46 51 52 48 41 36 31 23 15 8 3 1 0 1 1 1 0 0 1 1 0 0 0 0 0 0 0 0 0
0 0 0 0 0 0 0 1 3 3 5 9 18 29 36 38 41 46 47 45 49 53 54 52 48 44 39 29 19 11 5 2 2 2 2 1 0 0 2 2 1 0 0 0 0 0 0 0 0
0 0 0 0 0 0 0 1 3 3 3 5 11 20 27 32 40 48 51 50 52 56 56 54 52 50 45 35 22 13 6 4 4 4 3 1 1 1 2 3 2 1 1 1 1 1 1 1 0
0 0 0 0 0 0 0 1 2 2 2 3 6 11 19 29 39 46 50 52 56 58 56 52 51 49 45 37 26 16 9 6 6 6 5 4 3 3 3 3 3 4 3 2 2 2 3 2 1
0 0 0 0 0 0 0 1 2 2 2 3 3 7 14 24 35 43 48 51 55 57 53 48 47 46 42 37 30 21 13 9 7 7 8 7 5 4 3 3 4 5 4 4 3 3 4 4 3
0 0 0 0 0 0 0 0 1 2 2 3 3 5 11 20 30 41 49 51 52 51 48 47 45 43 39 34 29 21 14 10 8 8 9 8 6 4 4 4 5 6 5 5 4 3 4 7 7
0 0 0 0 0 0 0 0 0 1 1 1 3 5 10 20 31 42 50 52 49 46 46 45 43 40 35 30 23 16 11 10 11 10 9 7 6 6 5 5 6 6 6 6 6 5 6 9 10
0 0 0 0 0 0 0 0 0 0 0 1 3 7 13 24 37 47 51 50 46 44 43 42 41 38 33 26 19 14 11 11 11 10 8 6 6 7 6 6 7 7 6 7 7 7 8 9 10
0 0 0 0 0 0 0 0 0 0 0 1 3 8 17 29 43 52 52 47 44 42 41 39 38 36 30 24 19 15 13 11 10 7 6 6 6 7 7 7 7 7 6 7 7 7 7 8 8
0 0 0 0 0 0 0 0 0 0 1 2 5 12 21 30 43 52 52 45 40 38 36 34 32 32 27 22 18 14 13 12 9 7 5 5 7 7 7 6 6 6 6 7 7 6 7 9 10
0 0 0 0 0 0 0 0 0 1 2 3 7 15 24 30 39 49 50 43 36 33 31 28 26 24 21 17 14 11 11 11 10 8 6 5 6 6 5 4 4 5 5 5 5 6 7 11 13
0 0 0 0 0 0 0 0 0 1 2 3 7 16 25 30 37 47 48 41 36 32 29 26 22 19 15 13 12 10 9 9 9 8 6 4 4 5 4 3 3 3 3 3 3 4 6 8 11
0 0 0 0 0 0 0 0 0 0 1 3 7 16 25 30 40 48 47 40 36 33 30 26 22 18 14 12 12 11 9 8 7 7 5 4 4 4 4 3 3 2 1 2 3 4 5 6 7

GEFSSGP_con_prob3kmehi_144.txt.gz
EHI
10 20 38 48 36 12 1 0 0 0 0 0 0 0 0 0 0 1 5 14 17 12 8 10 10 7 4 2 1 1 0 0 1 2 2 2 2 2 1 0 0 0 0 0 0 0 0 0 0
12 20 32 37 24 7 0 0 0 0 0 0 0 0 0 0 0 1 6 12 13 9 8 9 9 7 5 3 2 1 0 0 1 1 1 1 1 1 0 0 0 0 0 0 0 0 0 0 0
16 18 21 19 9 2 0 0 0 0 0 1 1 0 0 1 1 3 6 10 12 12 11 12 11 9 6 4 2 1 0 0 0 0 0 0 0 0 0 0 0 0 0 0 0 0 0 0 0
16 14 11 6 2 0 0 0 0 0 1 2 2 2 2 3 4 5 6 10 16 19 17 15 15 12 7 3 1 0 0 0 0 0 0 0 0 0 0 0 0 0 0 0 0 0 0 0 0
11 8 5 2 0 0 0 0 0 0 1 2 4 5 5 6 7 6 6 12 20 23 19 17 17 13 7 3 1 0 0 0 0 0 0 0 0 0 0 0 0 0 0 0 0 0 0 0 0
5 4 2 0 0 0 0 1 1 1 1 2 6 9 10 10 11 9 9 15 24 27 22 18 16 13 7 3 1 1 1 0 0 0 0 0 0 0 0 0 0 0 0 0 0 0 0 0 0
2 1 0 0 0 0 0 1 1 0 0 1 5 12 18 20 17 14 15 21 31 34 27 19 14 11 7 4 3 2 1 0 0 0 0 0 0 0 0 0 0 0 0 0 0 0 0 0 0
1 0 0 0 0 0 0 0 0 0 1 1 4 15 29 31 23 19 21 27 37 39 30 20 15 12 9 6 5 3 1 0 0 0 0 0 0 0 0 0 0 0 0 0 0 0 0 0 0
0 0 0 0 0 0 0 0 1 2 4 7 12 25 39 37 28 25 27 31 37 37 29 23 20 16 12 8 6 2 0 0 0 0 0 0 0 0 0 0 0 0 0 0 0 0 1 1 0
0 0 0 0 0 0 0 0 1 3 6 14 27 42 46 40 33 30 32 36 38 35 28 24 23 20 15 11 7 4 1 1 1 1 1 1 0 1 1 1 0 0 0 0 0 0 1 1 1
0 0 0 0 0 0 0 0 1 2 7 20 41 53 51 44 38 34 34 37 39 35 28 24 24 21 16 13 10 5 2 2 3 4 3 1 1 2 3 2 1 1 0 0 0 0 1 1 0
0 0 0 0 0 0 0 0 1 3 8 24 46 55 51 47 43 37 36 38 39 36 31 29 31 30 25 19 12 5 2 1 5 8 4 1 1 2 3 2 2 2 1 1 0 0 0 0 1
0 0 0 0 0 0 0 0 2 6 12 26 44 52 48 46 44 40 40 43 45 43 39 40 46 47 40 27 15 6 3 2 6 9 4 1 2 2 3 3 3 3 3 3 1 0 1 1 1
0 0 0 0 0 0 1 1 5 11 17 26 39 45 45 45 46 46 47 51 57 57 53 53 57 56 44 26 13 6 5 5 8 10 7 3 5 7 5 2 2 2 3 3 1 0 0 0 1
0 0 0 0 0 0 2 4 8 14 20 26 34 41 46 50 54 55 55 59 67 70 66 61 58 53 40 22 10 6 6 7 11 16 15 9 9 12 8 2 2 3 4 3 1 0 0 0 0
0 0 0 0 0 0 2 6 9 12 19 28 35 45 55 61 62 63 64 67 72 76 72 62 55 53 45 29 15 8 8 10 17 25 26 17 12 13 10 4 4 6 5 4 2 1 0 0 0
0 0 0 0 0 0 2 7 8 9 18 30 40 51 64 70 69 69 71 72 74 75 72 63 58 59 52 38 23 14 12 14 21 30 35 27 17 13 10 8 8 7 5 5 5 4 2 0 0
0 0 0 0 0 0 2 6 7 8 17 31 43 55 68 73 73 74 74 73 74 74 73 67 65 63 57 44 33 25 20 17 20 29 36 33 23 17 12 12 14 11 7 7 9 8 4 1 0
0 0 0 0 0 0 2 6 9 10 16 29 43 56 66 71 73 75 74 73 74 75 75 72 70 69 62 51 43 37 29 21 18 26 32 31 26 22 16 15 19 17 11 10 10 8 5 2 1
0 0 0 0 0 0 1 5 10 11 12 22 37 52 60 66 73 76 75 73 74 75 75 74 74 73 66 57 50 43 34 26 23 28 32 30 29 26 20 17 21 21 16 13 11 9 5 3 2
0 0 0 0 0 0 1 5 10 10 9 14 27 40 51 60 70 74 74 74 74 75 75 75 76 75 70 61 52 45 38 31 28 31 33 32 31 28 24 23 25 25 21 17 16 12 7 5 4
0 0 0 0 0 0 1 4 9 9 8 12 20 28 40 53 64 72 74 74 73 73 74 77 78 77 73 64 53 45 38 32 28 29 32 32 31 28 27 29 30 28 24 21 19 17 13 10 8
0 0 0 0 0 0 0 2 7 9 9 12 16 23 34 46 57 66 72 74 73 72 75 78 80 79 74 65 54 45 37 30 24 24 26 28 28 25 24 28 31 29 25 22 22 23 21 16 14
0 0 0 0 0 0 0 1 4 6 8 11 15 22 32 42 52 62 69 73 74 73 76 80 82 79 73 65 55 47 38 30 23 19 19 21 22 20 18 23 30 29 25 23 26 29 26 22 21
0 0 0 0 0 0 0 0 1 3 5 9 15 22 29 39 50 60 68 74 76 75 76 80 81 78 72 64 58 50 40 30 23 18 15 16 16 17 19 24 31 30 25 22 25 28 25 21 21
0 0 0 0 0 0 0 0 1 2 3 6 13 20 27 37 51 60 65 72 76 76 76 78 79 76 69 63 58 49 38 28 22 19 16 14 14 17 23 30 32 29 24 21 21 23 21 17 16
0 0 0 0 0 0 0 0 1 3 4 5 10 18 26 37 51 58 63 68 74 77 77 77 76 72 65 59 52 42 33 25 20 17 15 14 13 16 23 30 30 27 23 22 22 20 18 16 13
0 0 0 0 0 0 0 0 1 4 4 5 10 18 26 37 50 60 65 68 71 74 75 74 73 70 63 55 45 34 28 23 17 14 12 12 12 16 21 25 26 26 25 24 23 21 18 16 14
0 0 0 0 0 0 0 0 1 3 4 6 12 20 28 36 50 64 71 70 69 70 72 72 71 68 62 55 44 32 26 23 18 14 12 11 13 17 21 23 23 25 27 25 22 20 17 14 13
0 0 0 0 0 0 0 0 1 2 4 6 13 23 29 36 50 67 75 73 69 67 70 72 69 65 62 57 46 34 28 24 19 15 13 13 14 18 21 23 23 24 25 24 20 18 16 14 12

GEFSSGP_con_prob3kmehi_150.txt.gz
EHI
5 5 4 2 1 0 0 0 0 0 0 0 0 0 1 0 0 1 1 7 15 15 10 12 17 16 11 7 4 1 0 1 2 3 3 3 3 2 1 0 0 0 0 0 0 0 0 0 0
2 3 2 1 0 0 0 0 0 0 0 0 0 0 1 1 2 2 2 8 15 13 9 13 19 18 13 9 5 1 0 0 2 3 3 3 2 2 1 0 0 0 0 0 0 0 0 0 0
1 1 1 0 0 0 0 1 1 1 1 1 0 0 1 3 4 4 6 10 13 11 9 14 20 19 15 11 6 2 0 0 1 2 2 1 1 1 0 0 0 0 0 0 0 0 0 0 0
1 1 1 0 0 0 1 2 2 1 2 2 1 0 1 3 7 9 10 14 15 12 10 14 19 18 15 12 7 2 0 0 1 1 1 0 0 0 0 0 0 0 0 0 0 0 0 0 0
0 0 0 0 0 0 1 2 2 2 3 2 1 0 1 6 12 15 16 18 18 15 12 13 17 17 15 12 7 3 1 0 0 0 0 0 0 0 0 0 0 0 0 0 0 0 0 0 0
0 0 0 0 0 0 1 2 4 5 4 3 1 1 4 12 19 21 21 21 20 16 14 14 15 16 15 12 7 4 1 0 0 0 0 0 0 0 0 0 0 0 0 0 0 0 0 0 0
0 0 0 0 0 0 0 1 3 5 6 5 3 1 7 18 25 25 25 24 21 16 14 12 12 13 14 12 7 3 1 0 0 0 0 0 0 0 0 0 0 0 0 0 0 0 0 0 0
0 0 0 0 0 0 0 0 1 4 7 7 4 2 9 22 31 33 32 29 23 16 13 10 9 9 11 11 7 3 0 0 0 0 0 0 0 0 0 0 0 0 0 0 0 0 0 0 0
0 0 0 0 0 0 0 0 0 2 6 8 6 7 15 29 40 44 42 37 29 19 12 9 7 7 8 8 6 2 0 0 0 0 0 0 0 0 0 0 0 0 0 0 0 0 0 0 0
0 0 0 0 0 0 0 0 0 2 5 8 11 15 23 35 46 52 52 47 36 23 13 9 7 7 5 5 4 2 0 0 0 0 0 0 0 0 0 0 0 0 0 0 0 0 0 0 0
0 0 0 0 0 0 0 0 0 1 5 11 17 22 27 36 46 52 55 54 44 29 17 10 8 7 5 3 2 1 0 0 0 0 0 0 0 0 0 0 0 0 0 0 0 0 0 0 0
0 0 0 0 0 0 0 0 1 2 6 15 23 27 30 35 41 47 52 53 46 35 24 16 12 9 5 1 1 0 0 0 0 0 0 0 0 0 0 0 0 0 0 0 0 0 0 0 0
0 0 0 0 0 0 1 2 4 8 16 25 31 33 32 32 35 42 48 50 46 39 31 25 19 14 8 3 0 0 0 0 0 0 0 0 0 0 0 0 0 0 0 0 0 0 0 0 0
0 0 0 1 1 1 3 6 11 20 30 35 36 36 34 31 34 42 48 49 47 43 39 33 27 22 15 7 2 0 0 0 0 0 0 0 0 0 0 0 0 0 0 0 0 0 0 0 0
0 0 0 1 1 2 4 9 19 32 39 39 36 35 34 34 38 44 48 49 49 48 45 40 36 31 22 12 4 1 0 1 1 0 0 0 0 0 0 0 0 0 0 0 0 0 0 0 0
0 0 0 0 1 2 4 9 22 36 42 39 35 34 35 37 42 45 48 50 53 54 51 46 42 37 27 16 7 2 1 1 1 0 0 0 1 1 1 0 0 0 0 0 0 0 0 0 0
0 0 0 0 1 1 3 9 20 34 40 39 38 39 39 40 44 48 50 53 57 58 55 49 45 40 30 19 10 4 1 1 1 1 1 1 2 3 2 1 0 0 0 0 0 0 0 0 0
0 0 0 0 1 1 4 11 20 31 39 42 45 47 46 45 47 51 54 56 58 58 56 51 47 42 33 23 13 8 4 2 1 2 3 2 3 4 3 1 0 0 0 0 0 0 0 0 0
0 0 0 0 0 2 5 13 20 29 39 46 50 51 50 49 50 55 60 62 62 60 56 52 49 44 36 27 18 12 8 4 2 2 4 4 4 4 3 2 1 0 0 0 0 0 0 0 0
0 0 0 0 0 2 5 10 18 25 34 43 50 52 53 54 58 62 66 68 67 64 58 54 52 46 38 29 22 16 11 5 1 1 4 6 7 6 4 3 2 1 1 1 1 1 0 0 0
0 0 0 0 0 1 3 6 13 21 27 36 47 53 57 61 65 68 69 69 69 66 61 57 53 46 37 29 25 21 15 8 3 1 2 6 7 7 5 4 3 2 2 2 2 2 1 1 0
0 0 0 0 0 0 1 2 7 17 25 32 44 53 57 60 64 67 68 68 67 64 62 58 53 46 37 30 27 24 19 13 7 3 1 3 4 5 6 5 4 2 1 2 3 3 3 2 1
0 0 0 0 0 0 0 0 3 12 21 30 42 50 50 52 57 62 65 66 66 64 62 57 52 45 37 31 27 23 19 14 9 5 2 2 3 4 5 5 4 2 1 2 3 3 3 3 3
0 0 0 0 0 0 0 0 1 5 13 25 37 44 45 47 51 57 63 66 68 67 64 58 52 45 38 32 28 22 16 12 9 6 4 3 3 4 4 3 3 3 3 3 3 3 3 3 3
0 0 0 0 0 0 0 0 0 2 8 20 33 42 45 46 49 55 60 66 69 69 66 61 55 48 39 33 28 23 16 11 9 8 7 6 4 2 2 3 4 4 4 3 3 3 3 3 3
0 0 0 0 0 0 0 0 1 3 9 20 32 42 48 49 50 54 58 62 66 67 65 62 57 50 40 33 28 22 16 10 8 8 8 6 4 1 2 4 6 6 5 4 3 3 3 2 1
0 0 0 0 0 0 0 0 2 6 16 25 35 45 51 52 52 54 56 59 61 63 62 59 55 47 37 29 24 20 15 9 6 6 6 4 2 1 2 5 6 6 6 5 3 2 1 1 0
0 0 0 0 0 0 0 0 2 8 19 30 37 45 52 53 52 51 53 54 56 57 57 55 50 42 32 25 21 16 12 8 5 4 4 3 2 2 4 5 6 6 5 4 3 1 0 0 0
0 0 0 0 0 0 0 0 1 6 17 28 34 41 49 52 50 49 49 49 50 53 54 51 46 39 32 27 20 13 10 7 4 4 5 5 4 5 5 5 4 4 4 3 3 2 1 1 0
0 0 0 0 0 0 0 0 1 5 14 23 30 37 46 50 49 48 48 47 48 53 55 51 46 40 34 29 21 13 9 6 4 4 6 6 6 6 6 4 2 2 3 4 4 3 2 2 1

GEFSSGP_con_prob3kmehi_156.txt.gz
EHI
1 1 0 0 0 0 0 0 0 0 0 0 0 0 0 0 0 0 0 1 2 3 4 7 11 12 10 9 6 4 2 1 0 0 0 0 0 1 1 1 0 0 0 0 0 0 0 0 0
1 0 0 0 0 0 0 0 0 0 0 0 0 0 0 0 0 0 1 3 4 4 4 8 11 12 10 9 7 4 2 0 0 0 0 0 0 0 0 0 0 0 0 0 0 0 0 0 0
0 0 0 0 0 0 0 0 0 0 0 0 0 0 0 0 0 0 2 5 7 6 4 8 13 13 10 8 7 4 2 1 0 0 0 0 0 0 0 0 0 0 0 0 0 0 0 0 0
0 0 0 0 0 0 0 0 0 0 0 0 0 0 1 1 2 3 6 8 9 7 5 8 14 14 9 5 4 3 2 1 1 1 1 1 0 0 0 0 0 0 0 0 0 0 0 0 0
0 0 0 0 0 0 0 0 0 0 1 1 1 0 1 2 5 8 10 10 10 8 6 8 13 12 7 4 2 1 1 0 1 2 2 2 1 0 0 0 0 0 0 0 0 0 0 0 0
0 0 0 0 0 0 0 0 0 1 3 3 2 0 1 3 7 12 13 12 10 9 8 8 10 9 7 4 2 0 0 0 0 1 2 2 1 0 0 0 0 0 0 0 0 0 0 0 0
0 0 0 0 0 0 0 1 1 3 4 4 2 0 1 3 7 12 14 12 10 9 8 7 6 7 7 5 2 0 0 0 0 0 1 1 0 0 0 0 0 0 0 0 0 0 0 0 0
0 0 0 0 0 0 0 1 2 3 3 2 1 0 2 5 9 13 14 13 10 9 7 6 5 7 7 5 2 1 0 0 0 0 0 0 0 0 0 0 0 0 0 0 0 0 0 0 0
0 0 0 0 0 0 0 1 1 2 2 2 1 3 8 13 15 16 16 14 12 10 7 6 7 7 7 5 3 1 0 0 0 1 1 0 0 0 0 0 0 0 0 0 0 0 0 0 0
0 0 0 0 0 0 0 0 0 1 2 4 5 10 19 23 20 16 14 14 14 13 10 8 7 6 5 4 3 2 0 0 0 1 1 0 0 0 0 0 0 0 0 0 0 0 0 0 0
0 0 0 0 0 0 0 0 1 3 3 5 11 20 29 30 21 13 10 11 12 14 13 10 6 5 4 3 3 2 1 0 0 0 0 0 0 0 0 0 0 0 0 0 0 0 0 0 0
0 0 0 0 0 0 0 1 2 3 3 7 18 29 33 30 22 12 8 8 9 12 13 10 6 4 3 3 3 3 2 1 0 0 0 0 0 0 0 0 0 0 0 0 0 0 0 0 0
0 0 0 0 0 0 1 3 4 3 5 14 24 30 31 27 20 13 10 8 8 10 11 9 6 4 3 2 2 2 2 1 0 0 0 0 0 0 0 0 0 0 0 0 0 0 0 0 0
0 0 0 0 0 1 2 4 4 5 11 19 25 27 25 21 16 15 16 14 11 11 11 8 6 4 3 2 1 1 1 0 0 0 0 0 0 0 0 0 0 0 0 0 0 0 0 0 0
0 0 0 0 0 1 2 3 3 7 15 21 23 23 21 17 14 16 20 20 16 14 11 9 6 5 3 2 2 1 0 0 0 0 0 0 0 0 0 0 0 0 0 0 0 0 0 0 0
0 0 0 0 0 0 1 1 3 9 15 18 19 21 21 18 15 18 22 23 20 16 13 11 9 7 5 3 2 1 0 1 0 0 0 0 0 0 0 0 0 0 0 0 0 0 0 0 0
0 0 0 0 0 0 0 1 4 10 15 18 18 19 19 17 17 20 24 25 23 20 18 16 14 11 7 3 1 0 0 0 0 0 0 0 0 0 0 0 0 0 0 0 0 0 0 0 0
0 0 0 0 0 0 0 1 6 13 17 19 19 16 14 14 15 19 25 29 27 24 23 23 20 15 10 6 2 0 0 0 0 0 0 0 0 0 0 0 0 0 0 0 0 0 0 0 0
0 0 0 0 0 0 0 2 7 14 18 21 22 18 14 13 13 16 24 31 31 27 27 28 25 20 16 11 5 1 0 0 0 0 0 0 0 1 1 0 0 0 0 0 0 0 0 0 0
0 0 0 0 0 0 0 2 5 10 14 18 22 21 18 15 15 18 23 31 35 32 31 31 28 26 22 16 10 4 1 0 0 0 0 0 1 1 1 1 1 0 0 0 0 0 0 0 0
0 0 0 0 0 0 1 1 3 5 7 11 17 22 21 19 20 22 26 33 37 36 34 32 31 30 27 23 17 11 7 4 2 1 0 0 1 1 1 2 2 1 1 0 0 0 1 1 1
0 0 0 0 0 0 0 0 1 2 3 6 13 20 24 24 25 25 28 34 38 36 34 33 33 32 30 28 25 21 15 9 4 2 0 0 0 0 1 2 2 2 1 0 0 0 1 2 2
0 0 0 0 0 0 0 0 0 1 4 6 10 19 26 29 28 27 28 32 35 35 34 33 32 33 32 30 28 25 19 12 5 1 0 0 0 0 2 2 1 1 1 0 0 0 1 1 1
0 0 0 0 0 0 0 0 0 1 3 4 8 15 24 29 29 27 26 29 34 37 39 37 36 35 34 32 29 26 21 14 8 3 2 1 0 1 2 2 1 0 0 0 0 0 0 0 1
0 0 0 0 0 0 0 0 0 0 1 3 5 12 20 25 25 23 24 29 37 44 47 45 41 36 32 32 30 26 21 16 12 7 3 1 1 1 2 2 2 1 1 1 1 1 1 1 1
0 0 0 0 0 0 0 0 0 0 0 2 5 11 18 21 21 20 22 29 39 47 49 46 40 34 31 30 28 24 18 15 12 6 2 1 0 1 1 2 2 2 3 3 3 3 2 1 1
0 0 0 0 0 0 0 0 0 0 1 3 6 12 17 19 19 20 23 29 37 44 45 42 38 33 29 26 23 18 15 13 10 4 1 0 0 0 1 2 3 4 4 3 3 2 1 1 0
0 0 0 0 0 0 0 0 0 0 1 3 6 11 15 17 19 22 25 29 34 37 37 37 35 30 24 20 18 15 13 11 7 4 1 1 1 0 1 3 5 4 2 1 1 1 0 0 0
0 0 0 0 0 0 0 0 0 0 1 2 3 8 13 17 19 21 25 30 31 30 31 32 30 25 19 17 16 15 12 9 6 4 3 2 2 1 2 5 5 3 1 0 0 0 0 0 0
0 0 0 0 0 0 0 0 0 0 0 1 3 7 12 16 17 19 24 30 29 27 28 29 28 22 18 16 16 14 11 8 6 5 4 3 2 2 3 5 5 2 0 0 0 0 0 0 0

GEFSSGP_con_prob3kmehi_162.txt.gz
EHI
6 8 11 10 4 1 0 0 0 0 0 0 0 0 0 0 0 0 0 0 1 2 3 3 2 1 2 2 1 0 0 0 0 0 0 0 0 0 0 0 0 0 0 0 0 0 0 0 0
3 6 10 8 3 0 0 0 0 0 0 0 0 0 0 0 0 0 0 0 1 2 3 4 3 3 3 3 2 1 0 0 0 0 0 0 0 0 0 0 0 0 0 0 0 0 0 0 0
4 7 7 4 1 0 0 0 0 0 0 0 0 0 1 1 0 0 0 0 1 2 4 5 5 4 3 3 2 1 0 0 0 0 0 0 0 0 0 0 0 0 0 0 0 0 0 0 0
7 7 4 1 0 0 0 0 0 0 0 0 0 1 2 2 1 0 0 0 1 2 3 5 5 4 3 2 1 0 0 0 0 0 0 0 0 0 0 0 0 0 0 0 0 0 0 0 0
5 4 2 0 0 0 0 0 0 0 0 0 0 1 2 2 1 0 0 0 0 1 2 4 5 5 4 2 0 0 0 1 0 0 0 0 0 0 0 0 0 0 0 0 0 0 0 0 0
2 1 0 0 0 0 0 0 0 0 0 0 0 0 1 2 2 1 0 0 0 0 2 4 6 5 4 2 0 0 0 0 0 0 0 0 0 0 0 0 0 0 0 0 0 0 0 0 0
1 0 0 0 0 0 0 0 0 0 0 0 0 0 2 4 5 3 1 0 1 1 2 4 5 5 3 1 0 0 0 0 0 0 0 0 0 0 0 0 0 0 0 0 0 0 0 0 0
0 0 0 0 0 0 0 0 0 0 0 0 0 1 5 9 9 5 3 2 2 3 4 5 5 4 2 1 0 0 0 0 0 0 0 0 0 0 0 0 0 0 0 0 0 0 0 0 0
0 0 0 0 0 0 0 0 0 0 1 1 1 4 9 14 14 9 6 5 6 6 6 6 5 3 1 0 0 0 0 0 0 0 0 0 0 0 0 0 0 0 0 0 0 0 0 0 0
0 0 0 0 0 0 0 0 0 0 1 3 5 10 16 20 18 11 7 7 9 10 9 7 5 2 0 0 0 0 0 0 0 0 0 0 0 0 0 0 0 0 0 0 0 0 0 0 0
0 0 0 0 0 0 0 0 0 1 2 4 10 19 26 25 19 11 6 6 10 12 11 9 7 4 1 0 0 0 0 0 0 0 0 0 0 0 0 0 0 0 0 0 0 0 0 0 0
0 0 0 0 0 0 0 1 2 1 2 6 14 25 29 25 17 9 5 5 9 13 13 10 9 7 3 1 0 0 0 0 0 0 0 0 0 0 0 0 0 0 0 0 0 0 0 0 0
0 0 0 0 0 0 1 3 4 3 4 9 18 27 27 21 14 9 6 7 11 15 15 12 9 8 4 2 1 1 1 0 0 0 0 0 0 0 0 0 0 0 0 0 0 0 0 0 0
0 0 0 0 0 0 1 3 5 4 6 12 20 24 23 19 15 11 10 12 15 17 16 13 11 9 5 3 2 2 2 1 1 0 0 0 0 0 0 0 0 0 0 0 0 0 0 0 0
0 0 0 0 0 0 1 4 6 6 8 12 18 19 18 17 16 14 15 16 17 17 15 14 12 10 7 4 2 2 2 2 1 1 0 1 1 1 1 0 0 0 0 0 0 0 0 0 0
0 0 0 0 0 0 1 4 7 8 9 12 15 16 17 19 17 16 16 17 18 19 19 18 15 13 9 6 3 1 1 1 1 1 1 2 2 2 2 1 0 0 1 1 0 0 0 0 0
0 0 0 0 0 0 1 4 8 9 11 13 14 16 20 23 20 18 18 20 23 27 28 26 23 18 13 8 5 2 1 0 0 0 1 2 3 3 3 1 1 1 2 2 1 1 1 0 0
0 0 0 0 0 0 1 4 8 10 12 13 14 16 22 26 25 23 23 26 30 33 35 34 31 26 21 15 11 8 4 2 1 1 2 3 3 3 3 3 2 2 2 3 3 2 2 1 0
0 0 0 0 0 0 0 2 6 11 12 12 12 15 21 26 28 30 30 31 33 36 40 42 39 36 32 27 22 17 10 4 3 4 5 5 5 4 3 3 3 3 3 3 3 4 4 3 2
0 0 0 0 0 0 0 1 4 9 11 11 12 14 18 24 32 36 37 36 38 41 45 47 46 45 43 38 31 24 16 8 5 6 7 8 7 6 6 5 5 5 5 5 6 7 8 8 7
0 0 0 0 0 0 0 1 3 7 11 13 13 13 15 22 33 42 44 43 44 46 46 46 48 50 49 44 36 30 25 17 12 10 9 9 9 8 9 8 7 7 6 7 9 12 13 13 12
0 0 0 0 0 0 0 1 3 7 12 15 15 16 18 22 31 42 45 43 44 44 42 43 47 51 52 47 40 37 33 27 21 14 10 10 9 9 9 9 9 9 8 9 12 14 16 17 16
0 0 0 0 0 0 0 0 1 3 8 14 18 21 23 24 28 37 39 37 38 38 40 44 50 53 53 49 44 40 36 29 22 16 13 12 12 10 8 8 9 10 11 12 14 15 16 16 16
0 0 0 0 0 0 0 0 0 0 3 9 16 23 27 27 28 32 36 36 35 35 39 46 54 57 56 53 48 41 34 27 21 17 15 15 15 13 9 7 8 10 11 14 15 14 14 13 13
0 0 0 0 0 0 0 0 0 0 1 5 12 20 28 31 29 32 36 39 38 36 39 47 55 60 59 55 51 43 33 26 22 17 16 16 15 14 11 8 6 7 9 12 13 12 11 10 9
0 0 0 0 0 0 0 0 0 0 1 5 10 18 29 34 33 34 37 40 41 39 40 46 53 57 57 55 53 45 34 25 20 15 13 13 11 10 10 7 5 5 7 9 10 10 9 7 6
0 0 0 0 0 0 0 0 0 0 2 7 11 18 30 38 40 41 39 38 39 40 41 45 50 53 54 54 51 44 33 22 15 12 11 10 8 7 6 5 6 6 7 10 10 10 9 7 6
0 0 0 0 0 0 0 0 0 0 2 7 13 20 30 41 48 50 46 40 37 40 45 49 52 53 53 51 46 39 30 21 14 11 11 10 9 7 6 6 7 7 9 10 10 10 8 6 5
0 0 0 0 0 0 0 0 0 0 1 4 12 21 30 41 50 53 52 47 42 42 48 53 56 54 50 47 44 38 29 21 16 15 14 13 12 11 10 10 10 8 8 9 10 8 6 4 2
0 0 0 0 0 0 0 0 0 0 1 3 10 20 30 40 48 53 54 52 47 46 48 53 56 53 47 46 44 39 29 21 18 18 17 16 16 15 14 14 12 9 7 8 10 8 4 2 1

GEFSSGP_con_prob3kmehi_168.txt.gz
EHI
10 23 40 43 27 8 1 0 0 0 0 0 0 0 0 0 0 0 3 7 8 4 1 1 1 1 1 0 0 0 0 0 0 0 0 1 0 0 0 0 0 0 0 0 0 0 0 0 0
14 27 39 33 16 4 0 0 0 0 0 0 1 1 0 0 0 1 3 6 8 6 4 3 4 2 1 0 0 0 0 0 0 0 0 1 1 1 1 0 0 0 0 0 0 0 0 0 0
20 28 30 17 5 0 0 0 0 0 0 1 2 2 1 0 0 1 3 6 10 12 11 10 7 3 1 0 0 0 0 0 0 0 0 1 1 2 1 0 0 0 0 0 0 0 0 0 1
22 22 16 7 1 0 0 0 0 0 0 1 3 3 1 0 0 0 3 8 13 17 17 14 10 5 1 0 0 0 0 0 0 0 0 0 1 1 1 0 0 0 0 0 0 0 0 0 1
15 11 6 2 0 0 0 0 0 0 0 1 4 4 1 0 0 0 3 8 15 21 19 14 11 7 2 0 0 0 0 0 0 0 0 0 0 0 0 0 0 0 0 0 0 0 0 1 1
6 3 1 0 0 0 0 0 0 0 0 2 4 4 1 0 0 0 1 6 17 25 20 12 10 8 3 1 0 0 0 0 0 0 0 0 0 0 0 0 0 0 0 0 0 0 0 1 1
1 1 1 0 0 0 0 0 0 0 0 1 3 4 4 3 1 0 1 6 15 22 19 12 9 7 5 2 1 0 0 0 0 0 0 0 0 0 0 0 0 0 0 0 0 0 0 0 0
0 0 0 0 0 0 0 0 0 1 2 3 4 7 9 8 3 1 2 6 12 15 15 12 10 10 9 5 2 1 0 0 0 0 0 0 0 0 0 0 0 0 0 0 0 0 0 0 0
0 0 0 0 0 0 0 1 1 2 4 7 9 12 14 9 4 3 4 6 10 12 12 10 12 12 11 9 6 2 1 0 0 1 1 1 1 1 1 1 1 0 0 0 0 0 0 0 0
0 0 0 0 0 0 0 0 0 1 5 10 15 17 14 8 4 4 6 7 10 12 11 10 11 10 9 11 9 4 2 2 2 2 3 2 1 1 2 3 2 1 0 0 1 0 0 1 1
0 0 0 0 0 0 0 0 0 0 4 10 16 17 11 7 6 6 8 11 12 12 12 12 11 9 9 12 10 5 4 5 5 3 3 1 1 2 3 3 3 3 1 1 2 1 1 2 2
0 0 0 0 0 0 0 0 0 1 4 9 14 13 11 10 9 8 10 14 16 15 14 15 16 15 15 15 11 6 3 5 7 7 4 1 0 1 2 4 5 5 3 2 1 0 1 2 2
0 0 0 0 0 1 1 1 1 3 5 9 12 12 13 15 13 10 14 20 22 21 20 22 23 22 19 18 14 8 3 3 7 10 7 2 0 1 1 4 5 4 4 3 1 1 1 1 2
0 0 0 0 0 1 2 1 2 4 7 11 12 13 14 16 13 13 20 28 31 32 30 29 28 25 19 16 14 9 5 4 6 10 9 3 1 2 2 3 3 4 4 5 4 3 2 2 2
0 0 0 0 0 1 1 2 3 6 8 11 13 15 18 17 15 18 27 36 42 44 42 36 33 30 23 15 10 7 6 5 6 11 13 8 4 7 6 4 3 4 7 9 8 6 5 5 4
0 0 0 0 0 0 1 2 5 6 9 12 16 20 25 24 21 24 33 42 49 52 51 42 37 38 33 21 11 6 5 6 8 13 18 14 10 11 11 6 5 7 9 11 9 6 5 5 4
0 0 0 0 0 0 0 2 4 6 9 14 19 26 32 31 30 35 42 50 55 58 57 48 42 43 39 29 19 11 7 7 9 14 21 23 19 17 14 10 11 12 10 9 7 5 6 5 4
0 0 0 0 0 0 0 1 3 6 10 16 23 30 36 37 38 46 55 58 60 61 60 53 49 47 42 36 29 21 14 12 13 17 25 29 28 23 17 14 15 13 10 7 6 7 8 6 5
0 0 0 0 0 0 1 2 4 6 10 18 27 35 41 44 46 53 61 63 64 64 63 60 57 53 48 44 40 32 24 20 18 21 28 32 31 28 23 19 17 15 10 7 7 8 8 7 6
0 0 0 0 0 0 1 3 5 8 11 18 29 38 46 52 57 61 63 65 68 70 67 66 64 61 57 53 47 40 34 28 22 24 30 31 29 28 25 23 20 16 12 10 10 9 8 8 8
0 0 0 0 0 0 1 2 6 9 11 18 30 40 46 55 64 67 65 66 70 74 72 70 68 66 63 58 50 45 43 37 29 29 32 32 29 26 26 25 20 15 12 12 14 14 12 10 9
0 0 0 0 0 0 1 2 5 8 11 18 30 39 45 53 63 67 65 65 68 73 77 77 74 71 67 62 54 50 47 42 37 36 36 34 29 26 26 26 21 15 12 13 15 16 16 15 13
0 0 0 0 0 0 0 2 4 5 8 15 25 35 42 49 58 63 62 61 63 69 77 82 81 77 71 64 57 53 50 46 43 40 38 34 30 28 28 28 25 18 13 13 14 15 18 18 16
0 0 0 0 0 0 0 1 2 2 4 10 18 28 38 46 54 61 62 61 61 65 75 82 84 82 76 67 61 58 55 51 47 42 37 31 28 30 30 30 30 27 20 17 16 15 17 19 19
0 0 0 0 0 0 0 0 0 1 2 5 13 25 35 42 49 59 65 66 66 67 73 82 86 85 80 72 66 63 60 56 51 45 36 29 27 31 33 34 37 35 30 25 21 17 16 18 20
0 0 0 0 0 0 0 0 0 1 1 3 10 22 30 36 45 56 66 71 71 70 75 83 87 86 83 78 72 66 62 58 52 46 38 30 26 28 33 38 40 40 35 31 27 23 19 19 21
0 0 0 0 0 0 0 0 1 2 2 3 9 18 25 30 41 54 66 71 72 73 77 82 84 83 82 81 75 67 63 59 52 45 39 33 26 25 32 38 41 39 35 33 32 29 25 23 23
0 0 0 0 0 0 0 0 1 3 4 5 9 16 23 28 37 52 66 73 75 77 80 82 81 78 77 78 73 68 66 63 55 46 41 34 28 26 32 37 38 36 34 34 35 32 27 24 23
0 0 0 0 0 0 0 0 1 4 6 7 10 16 23 29 36 49 64 73 77 79 83 84 82 79 76 73 72 71 71 66 59 52 47 39 33 32 34 36 36 34 32 33 35 32 27 23 20
0 0 0 0 0 0 0 0 1 4 7 8 11 17 24 30 37 48 61 71 76 79 85 87 84 82 79 74 73 74 73 67 61 57 52 43 38 37 36 35 35 33 31 33 35 32 26 22 18

GEFSSGP_con_prob3kmehi_174.txt.gz
EHI
14 8 3 2 2 1 0 0 0 0 0 0 0 0 1 0 0 0 0 1 3 3 2 3 4 4 3 1 0 1 2 3 3 2 1 0 0 0 0 0 0 0 0 0 0 0 0 0 0
10 8 5 4 2 1 0 0 0 0 0 0 0 0 1 0 0 0 0 1 3 2 1 2 4 4 2 1 0 1 2 2 2 1 0 0 0 0 0 0 0 0 0 0 0 0 0 0 0
8 8 7 4 1 0 0 1 1 0 0 0 0 0 0 0 0 1 2 3 3 1 0 2 4 4 3 2 2 1 1 1 1 0 0 0 0 0 0 0 0 0 0 0 0 0 0 0 0
8 8 6 2 0 0 0 0 1 1 1 0 0 0 0 1 3 5 6 5 3 1 1 3 6 5 4 4 4 3 1 0 0 0 0 0 0 1 2 1 1 0 0 1 1 0 0 0 0
6 6 4 1 0 0 0 0 1 2 1 0 0 0 1 5 9 12 10 6 2 1 2 4 7 7 6 5 3 2 0 0 0 0 0 0 0 2 3 3 2 1 0 1 1 0 0 0 0
4 4 2 0 0 0 1 1 2 2 2 1 0 0 3 9 17 18 14 8 3 2 3 4 6 7 6 5 3 1 0 0 0 0 0 0 0 1 2 2 2 1 0 1 1 0 0 0 0
2 2 1 0 0 0 1 1 2 2 2 2 1 0 3 11 18 21 18 11 5 4 3 4 5 5 6 6 4 1 0 0 0 0 0 0 0 0 1 1 1 0 0 0 0 0 0 0 0
1 1 1 0 0 0 1 1 1 2 2 2 1 1 4 11 20 24 20 13 9 6 4 3 3 4 5 5 4 1 0 0 0 0 0 0 0 0 0 0 0 0 0 0 0 0 1 0 0
0 0 0 0 0 1 2 3 2 2 3 2 2 4 7 14 25 30 26 19 13 8 5 4 4 4 3 2 1 0 0 0 0 0 0 0 0 0 0 0 0 0 0 0 0 0 0 0 0
0 0 0 0 0 2 3 4 4 4 5 4 5 8 12 19 28 33 31 25 19 13 9 7 6 5 3 1 0 0 0 0 0 0 0 0 0 0 0 0 0 0 0 0 0 0 0 0 0
0 0 0 0 0 1 3 4 5 7 7 6 8 11 15 20 25 28 26 25 23 18 14 12 10 7 4 2 1 1 0 0 0 0 0 0 0 0 0 0 0 0 0 0 0 0 0 0 0
0 0 0 0 0 1 2 3 5 8 8 7 9 12 14 17 19 19 19 20 21 20 18 15 12 9 6 4 2 1 0 0 0 0 0 0 1 1 1 0 0 0 0 0 0 0 0 0 0
0 0 0 0 0 1 3 4 6 9 10 9 9 11 12 14 14 15 16 19 23 25 22 18 15 12 11 7 4 2 1 0 0 0 0 0 1 2 2 1 0 0 0 0 0 0 0 0 0
0 0 0 0 0 2 4 5 8 12 13 12 11 9 9 12 14 16 20 24 30 32 29 23 19 16 14 10 6 3 2 1 1 0 0 0 2 3 2 2 1 1 1 1 0 0 0 0 0
0 0 0 0 0 2 3 5 9 14 16 15 13 10 9 11 15 20 24 28 33 35 33 29 23 17 13 9 6 4 2 2 1 1 1 1 2 4 3 3 3 2 2 2 1 1 1 0 0
0 0 0 0 0 1 2 4 8 14 18 17 15 14 12 13 17 22 26 30 32 33 33 32 26 17 11 7 4 3 1 1 1 3 3 2 3 4 3 3 3 3 3 2 1 1 1 0 0
0 0 0 0 0 0 1 3 7 13 18 20 19 18 17 17 19 24 29 32 33 32 32 32 27 20 12 6 3 2 1 0 1 3 4 3 3 3 4 3 3 3 3 2 1 1 1 0 0
0 0 0 0 0 1 1 3 7 11 17 21 23 23 22 20 22 28 35 37 36 34 33 32 30 25 16 8 4 2 1 1 1 2 3 3 3 4 5 5 4 4 3 3 1 0 0 0 0
0 0 0 0 0 1 2 4 7 12 18 23 27 28 26 24 26 35 44 45 43 40 37 35 34 29 21 13 8 5 3 3 3 3 3 4 4 6 7 8 7 5 4 3 2 0 0 0 0
0 0 0 0 0 1 3 5 8 14 20 25 30 33 32 29 33 44 51 53 51 46 41 38 36 31 26 19 12 8 5 4 4 5 7 8 8 9 10 11 9 5 3 3 1 0 1 1 1
0 0 0 0 0 1 3 3 6 13 21 27 32 35 36 36 41 48 54 56 56 52 46 42 39 35 31 25 18 13 9 5 3 3 6 9 12 12 12 12 9 4 3 2 1 1 3 4 4
0 0 0 0 1 1 1 1 4 12 22 26 30 33 37 40 44 49 53 55 57 56 52 47 44 40 36 32 28 23 16 8 3 1 3 7 11 12 13 11 8 4 1 1 1 3 4 6 6
0 0 0 0 0 0 0 0 3 11 20 23 25 29 35 41 45 50 53 54 56 59 57 54 50 46 42 38 35 31 22 13 7 5 4 6 8 11 12 11 8 4 2 1 2 4 5 6 7
0 0 0 0 0 0 0 0 2 8 15 19 20 25 33 41 47 53 53 52 55 61 63 62 59 53 47 43 39 35 26 18 13 11 9 8 9 10 10 9 7 6 4 4 5 6 6 7 8
0 0 0 0 0 0 0 0 1 5 11 16 18 23 34 44 50 52 52 53 57 64 68 68 65 60 54 49 44 38 30 23 18 15 14 13 12 11 9 7 6 6 5 5 6 6 6 7 8
0 0 0 0 0 0 0 0 0 3 9 15 18 24 35 45 49 49 51 55 59 64 68 69 66 63 59 54 49 43 36 27 21 17 15 14 13 12 11 9 7 6 5 5 6 6 6 7 7
0 0 0 0 0 0 0 0 0 4 13 20 23 29 37 43 43 44 49 55 57 61 64 66 65 63 60 56 51 46 41 33 23 17 13 11 10 11 11 10 9 8 8 6 5 5 6 6 6
0 0 0 0 0 0 0 0 1 6 17 27 31 35 40 41 38 39 46 52 55 57 61 63 64 63 59 56 53 50 46 37 25 17 12 9 8 9 8 7 7 8 9 7 5 4 5 6 6
0 0 0 0 0 0 0 0 1 6 18 29 35 37 40 39 35 36 44 51 54 57 61 62 64 65 62 58 56 54 50 40 28 20 14 10 8 6 5 5 5 6 8 8 5 4 4 5 6
0 0 0 0 0 0 0 0 0 6 18 29 34 37 39 37 35 38 45 52 56 58 62 63 65 67 66 62 59 56 50 40 31 24 17 11 7 5 5 5 5 6 8 8 6 4 5 6 6

GEFSSGP_con_prob3kmehi_180.txt.gz
EHI
7 4 1 0 1 0 0 0 0 0 0 0 0 0 0 0 0 0 0 0 0 0 0 1 2 2 2 3 5 4 2 1 0 0 0 0 0 0 0 0 0 0 0 0 0 0 0 0 0
4 3 1 1 2 1 0 0 0 0 0 0 0 0 0 0 0 0 0 0 0 0 0 1 3 3 3 4 5 4 2 0 0 0 0 0 0 0 0 0 0 0 0 0 0 0 0 0 0
2 1 2 3 2 1 0 0 0 0 0 0 0 0 0 0 0 0 0 0 0 0 0 2 5 5 4 4 4 4 3 1 0 0 0 0 0 0 0 0 0 0 0 0 0 0 0 0 0
1 1 3 3 2 0 0 0 0 0 0 0 0 0 0 0 0 1 1 1 2 1 0 2 6 7 5 4 3 3 3 1 0 0 0 0 0 0 0 0 0 0 0 0 0 0 0 0 0
2 2 2 1 0 0 0 0 0 0 0 0 0 0 0 0 0 1 1 1 2 2 1 2 6 8 6 3 2 1 1 0 0 0 0 0 0 0 0 0 0 0 1 1 0 0 0 0 0
3 3 1 0 0 0 0 0 0 0 0 0 0 0 0 0 0 1 1 0 1 1 1 2 5 6 6 4 1 0 0 0 0 0 0 0 0 0 0 0 0 1 2 1 0 0 0 0 0
3 2 1 0 0 0 0 0 0 0 0 0 0 0 0 0 0 0 0 0 0 0 0 2 3 4 4 3 2 1 1 0 0 0 0 0 0 0 0 0 0 1 1 1 1 1 1 0 0
2 1 0 0 0 0 0 1 1 1 0 0 0 0 0 0 0 0 0 0 0 0 1 2 3 3 2 2 2 2 1 0 0 0 0 0 0 0 0 0 0 0 0 1 1 2 1 0 0
1 0 0 0 0 0 0 1 2 1 0 0 0 0 1 3 4 3 2 1 1 1 2 3 3 3 2 1 1 1 1 0 0 0 0 0 0 0 0 0 0 0 0 0 1 1 1 0 0
0 0 0 0 0 1 1 3 2 1 0 0 0 2 6 10 10 7 4 4 4 3 3 3 3 3 3 2 1 0 0 0 0 0 0 0 0 0 0 0 0 0 0 0 0 0 0 0 0
0 0 0 0 1 2 3 4 3 1 0 0 2 8 14 15 13 10 7 5 4 3 3 2 2 3 3 2 1 1 0 0 0 0 0 0 0 0 0 0 0 0 0 0 0 0 0 0 0
0 0 0 0 1 3 3 3 3 2 1 1 6 14 18 16 12 11 9 7 5 4 3 2 2 2 2 1 2 2 1 0 0 0 0 0 0 0 0 0 0 0 0 0 0 0 0 0 0
0 0 0 1 2 3 3 2 3 3 2 4 9 15 16 12 10 10 10 9 8 7 5 4 3 3 2 1 1 1 1 0 0 0 0 0 0 0 0 0 0 0 0 0 0 0 0 0 0
0 0 1 2 3 3 3 2 3 3 4 6 9 11 10 9 8 8 9 10 11 10 8 6 5 4 3 2 1 0 0 0 0 0 0 0 0 0 0 0 0 0 0 0 0 0 0 0 0
0 0 1 2 3 3 2 2 2 3 5 6 6 6 6 6 6 6 8 10 12 11 9 8 7 5 3 2 1 0 0 0 0 0 0 0 0 0 0 0 0 0 0 0 0 0 0 0 0
0 0 0 1 3 3 1 1 2 3 5 5 4 3 3 3 3 4 6 9 10 9 8 8 8 6 3 1 0 0 0 0 0 0 0 0 0 0 0 0 0 0 0 0 0 0 0 0 0
0 0 0 1 2 2 1 0 1 4 6 6 4 3 2 1 1 2 4 7 9 9 7 7 8 7 4 1 0 0 0 0 0 0 0 0 0 0 0 0 0 0 0 0 0 0 0 0 0
0 0 0 0 1 2 1 0 2 5 9 10 7 4 2 1 1 2 4 7 11 11 9 7 7 6 4 2 1 0 0 0 0 0 0 0 0 0 1 1 0 0 0 0 0 0 0 0 0
0 0 0 0 0 1 1 1 2 6 11 13 9 5 3 2 2 3 5 8 11 12 12 11 9 6 4 3 1 0 0 0 0 0 0 0 0 0 1 1 0 0 0 0 0 0 0 0 1
0 0 0 0 0 0 0 0 1 5 10 12 10 7 4 3 5 6 6 9 11 13 15 15 12 8 6 5 3 1 0 0 0 0 0 0 0 0 1 1 0 0 1 1 1 0 0 1 2
0 0 0 0 0 0 0 0 0 2 6 8 8 7 5 6 8 9 8 9 12 14 17 18 16 12 9 8 6 5 3 2 1 0 0 0 0 0 1 1 1 1 2 2 2 1 1 2 3
0 0 0 0 0 0 0 0 0 1 3 6 6 6 7 8 11 12 10 10 12 15 18 20 19 15 12 11 10 9 7 5 2 1 0 0 1 2 2 2 2 2 2 2 2 2 2 3 4
0 0 0 0 0 0 0 0 0 0 2 4 6 7 8 9 11 13 13 12 13 16 20 23 23 20 16 15 14 12 10 7 3 1 0 0 2 3 2 1 1 1 1 1 1 1 1 3 4
0 0 0 0 0 0 0 0 0 0 0 2 5 6 7 8 10 14 16 15 15 18 23 25 25 24 22 20 19 17 13 9 4 2 0 1 1 1 1 0 0 0 0 0 0 0 1 3 4
0 0 0 0 0 0 0 0 0 0 0 1 4 6 7 8 10 16 21 21 19 20 24 26 26 26 26 25 24 21 17 13 9 4 2 1 1 0 0 1 1 1 1 0 0 0 2 3 3
0 0 0 0 0 0 0 0 0 0 0 1 4 7 8 8 12 19 25 25 22 20 22 25 26 26 26 27 25 23 20 17 13 7 3 2 2 1 1 2 2 2 1 0 0 0 1 3 3
0 0 0 0 0 0 0 0 0 0 1 2 5 9 9 10 14 20 26 26 22 20 21 24 26 25 24 24 24 22 20 17 13 9 5 4 3 2 1 3 2 1 1 0 0 0 1 2 3
0 0 0 0 0 0 0 0 0 0 1 2 5 9 12 14 18 22 24 25 22 20 20 22 25 24 23 21 20 21 21 17 12 8 6 5 5 3 1 1 1 0 0 0 0 0 1 3 3
0 0 0 0 0 0 0 0 0 0 0 1 5 9 15 19 22 23 24 24 22 20 20 22 24 23 20 18 19 22 21 15 9 6 5 6 5 4 2 1 1 0 0 0 1 1 2 3 3
0 0 0 0 0 0 0 0 0 0 0 2 6 11 16 21 23 23 24 25 23 21 21 22 23 21 18 17 19 22 21 14 8 4 5 6 6 4 2 2 2 1 0 1 2 2 3 3 3

GEFSSGP_con_prob3kmehi_186.txt.gz
EHI
13 10 7 7 5 2 0 0 0 0 0 0 0 0 0 0 0 0 0 0 0 0 0 0 0 0 0 0 0 0 0 0 0 0 0 0 0 1 2 2 1 0 0 0 0 0 0 0 0
10 9 9 8 4 1 0 0 0 0 0 0 0 0 0 0 0 0 0 0 0 0 0 0 0 0 0 0 0 0 0 0 0 0 0 0 0 1 1 1 0 0 0 0 0 0 0 0 0
6 8 9 7 2 0 0 0 0 0 0 0 0 0 0 0 0 0 0 0 0 0 0 1 0 0 0 0 0 0 0 0 0 0 0 0 0 0 0 0 0 0 0 0 0 0 0 0 0
5 7 7 4 1 0 0 0 0 0 0 0 0 0 0 0 0 0 0 0 0 0 0 0 0 0 0 0 0 0 0 0 0 0 0 0 0 0 0 0 0 0 0 0 0 0 0 0 0
7 6 4 1 0 0 0 0 0 0 0 0 0 0 0 0 0 0 0 0 0 0 0 0 0 0 0 0 0 0 0 0 0 0 0 0 0 0 0 0 0 0 0 0 0 0 0 0 0
6 4 2 0 0 0 0 0 0 0 0 0 0 0 1 1 0 0 0 0 0 0 0 1 0 0 0 0 0 0 0 0 0 0 0 0 0 0 0 0 0 0 0 0 0 0 0 0 0
2 1 0 0 0 0 0 0 0 0 0 0 0 0 2 2 1 0 0 0 0 0 0 0 0 0 0 0 0 0 0 0 0 0 0 0 0 0 0 0 0 0 0 0 0 0 0 0 0
0 0 0 0 0 0 0 0 0 0 0 0 0 0 2 3 2 1 0 0 1 1 0 0 0 0 0 0 0 0 0 0 0 0 0 0 0 0 0 0 0 0 0 0 0 0 0 0 0
0 0 0 0 0 0 0 0 0 0 0 0 0 1 3 5 4 3 1 1 3 3 2 1 1 1 0 0 0 0 0 0 0 0 0 0 0 0 0 0 1 1 1 0 0 0 0 0 0
0 0 0 0 0 0 0 0 0 0 0 1 3 4 7 7 6 4 3 4 5 6 6 5 4 3 1 0 0 0 0 0 0 0 0 0 0 0 0 0 1 2 1 1 1 0 0 1 1
0 0 0 0 1 1 1 0 0 0 0 1 4 9 10 9 7 5 4 5 7 9 10 8 6 5 3 1 0 0 0 0 0 0 0 0 0 0 0 0 1 1 1 1 0 0 0 0 0
0 0 0 0 1 2 2 1 0 0 0 1 5 10 11 9 7 5 5 6 7 9 10 9 8 6 5 3 1 0 0 0 0 0 0 0 0 0 0 0 0 0 1 0 0 0 0 0 0
0 0 0 0 1 3 2 1 0 0 1 3 6 9 10 8 6 5 5 6 8 8 10 10 9 7 6 4 2 0 0 0 0 0 0 0 0 0 0 0 0 0 0 0 0 0 0 0 0
0 0 0 0 1 2 2 1 0 1 2 4 7 8 7 6 6 5 6 7 9 10 11 12 11 9 7 4 1 0 0 0 0 0 0 0 1 1 1 2 1 0 0 0 0 0 0 0 0
0 0 0 0 1 1 1 0 1 3 5 6 8 8 6 5 6 6 7 8 10 12 14 15 14 12 8 3 1 0 0 0 0 0 0 1 2 2 3 3 2 1 0 0 0 0 0 0 0
0 0 0 0 0 0 0 0 1 3 6 8 10 11 9 6 5 5 5 7 10 15 18 18 17 15 11 5 2 0 0 0 0 0 1 2 3 3 3 3 3 2 1 0 0 0 0 0 0
0 0 0 0 0 0 0 0 1 4 5 8 12 14 12 9 5 3 3 5 11 16 20 22 22 18 13 8 5 2 1 0 0 1 2 3 3 4 3 4 4 3 2 1 0 1 1 0 0
0 0 0 0 0 0 0 1 3 4 5 7 11 14 13 10 5 4 4 6 12 19 23 26 26 22 16 11 8 5 2 1 1 1 2 3 4 5 5 5 6 6 4 2 1 2 3 1 0
0 0 0 0 0 0 0 1 3 6 6 7 10 13 13 10 8 8 7 8 15 23 29 31 30 26 21 16 11 7 4 3 2 2 1 3 5 6 7 8 9 9 8 5 3 3 3 2 1
0 0 0 0 0 0 0 1 4 7 8 7 9 11 11 12 15 15 13 13 19 28 32 34 33 29 26 21 15 8 5 5 5 4 4 6 7 8 10 11 11 12 12 9 7 4 3 3 2
0 0 0 0 0 0 0 1 3 5 6 6 7 7 9 13 19 20 19 18 22 28 31 34 35 33 31 28 21 13 9 9 8 7 7 9 10 11 11 11 12 13 14 12 9 5 3 3 3
0 0 0 0 0 0 0 0 1 3 4 6 7 6 8 13 19 21 22 22 23 26 29 34 39 39 38 36 30 24 18 12 10 10 10 11 12 10 9 10 12 14 15 12 8 4 3 3 2
0 0 0 0 0 0 0 0 0 1 3 7 9 9 10 14 19 22 22 22 23 25 29 36 44 47 46 42 38 34 25 17 13 13 15 16 14 10 7 9 13 15 13 9 5 5 5 4 5
0 0 0 0 0 0 0 0 0 0 2 6 10 11 12 14 18 23 25 25 26 27 30 38 46 51 51 46 42 38 31 25 21 20 21 20 16 11 9 10 14 16 13 7 5 6 7 8 9
0 0 0 0 0 0 0 0 0 0 1 4 7 11 15 17 19 25 30 32 33 33 35 40 46 51 51 47 42 38 34 31 28 25 24 22 18 15 14 14 15 16 13 7 5 6 8 9 11
0 0 0 0 0 0 0 0 1 1 2 4 6 10 17 22 25 29 35 38 38 38 39 42 47 50 48 43 39 37 34 31 29 28 26 24 23 22 22 20 17 14 10 6 6 7 7 8 9
0 0 0 0 0 0 0 0 1 2 4 6 9 12 17 24 31 38 41 42 41 40 41 44 49 51 47 41 36 33 32 31 29 29 29 27 26 25 24 22 17 12 7 5 6 7 7 7 7
0 0 0 0 0 0 0 0 1 3 5 8 10 13 16 22 33 43 48 49 44 40 40 43 49 52 49 44 38 33 32 33 34 34 34 32 29 27 25 22 18 13 8 8 7 8 8 8 7
0 0 0 0 0 0 0 0 1 3 6 8 9 12 15 22 31 41 49 52 50 44 42 44 48 50 50 48 42 36 35 37 39 39 40 38 34 32 30 27 22 15 11 12 13 12 12 12 10
0 0 0 0 0 0 1 1 2 4 6 8 9 12 16 23 31 39 48 54 54 50 46 46 48 49 50 48 44 40 38 39 41 41 43 43 40 36 34 31 25 17 14 15 17 17 16 14 12

GEFSSGP_con_prob3kmehi_192.txt.gz
EHI
12 12 19 31 30 13 1 0 0 0 0 0 0 0 0 0 0 0 2 6 8 5 1 0 0 1 1 1 0 0 0 1 2 3 3 2 1 0 0 0 0 0 0 0 0 0 0 0 0
11 15 26 32 22 8 1 0 0 0 0 0 0 0 0 0 0 0 2 5 7 5 2 1 1 2 2 2 1 0 0 0 1 2 2 2 1 0 0 0 0 0 0 0 0 0 0 0 0
14 21 29 24 11 2 0 0 0 0 0 0 0 0 0 0 0 0 1 4 5 6 5 3 2 2 3 2 1 0 0 0 0 1 1 1 0 0 0 0 0 0 0 0 0 0 0 0 0
25 28 22 11 4 1 0 0 0 0 0 0 1 1 1 0 0 0 1 4 6 6 5 4 3 3 1 1 1 0 0 0 0 0 0 0 0 0 0 0 0 0 0 0 0 0 0 0 0
34 27 14 4 1 0 0 0 0 0 0 1 2 3 2 1 0 0 1 3 5 5 4 3 4 3 1 0 0 0 0 0 0 0 0 0 0 0 0 0 0 0 0 0 0 0 0 0 0
28 19 7 2 0 1 1 1 0 0 0 1 3 4 3 1 0 0 0 1 2 4 6 4 3 2 1 0 0 0 0 0 0 0 0 0 0 0 0 0 0 0 0 0 0 0 0 0 0
17 11 4 1 0 1 1 1 0 0 0 0 2 4 5 2 0 0 0 0 0 3 7 6 2 1 0 0 0 0 0 0 0 0 0 0 0 1 1 1 1 0 0 0 0 0 0 0 0
9 6 2 0 0 0 1 0 0 0 0 0 1 4 6 4 1 0 0 0 0 2 5 5 3 2 2 1 1 1 0 0 0 0 0 1 1 2 2 2 2 1 0 0 0 0 0 1 1
3 2 1 0 0 0 1 0 0 0 1 1 2 6 8 5 2 1 1 2 2 2 2 2 3 4 4 3 2 2 1 0 1 1 1 2 3 3 3 3 4 2 0 0 0 1 1 2 2
0 0 0 0 0 0 0 0 0 1 2 3 5 9 10 6 3 2 3 5 5 4 3 3 3 4 4 4 4 3 1 1 2 3 3 3 3 3 3 4 6 4 1 0 0 1 2 2 1
0 0 0 0 0 0 0 0 0 1 2 4 9 12 11 7 5 4 4 6 6 6 7 7 6 5 4 4 4 3 1 1 3 5 4 3 3 3 3 5 6 4 1 0 1 2 2 1 0
0 0 0 0 0 0 0 0 1 2 2 5 10 13 10 8 7 6 5 6 6 6 8 11 12 12 10 6 3 2 2 3 5 7 7 5 4 3 4 5 5 3 2 1 2 3 3 2 1
0 0 0 0 0 0 0 0 1 2 3 6 10 10 8 8 9 7 6 6 7 9 11 16 19 19 15 9 4 1 2 3 4 8 9 7 5 4 4 5 6 6 4 3 4 5 5 4 3
0 0 0 0 0 0 0 1 2 3 5 7 9 8 8 8 10 9 8 10 14 16 19 22 24 23 17 9 3 1 2 1 3 8 9 7 6 5 5 6 7 7 5 5 6 7 6 5 5
0 0 0 0 0 1 1 1 3 5 7 9 9 9 9 10 11 14 16 19 24 28 29 27 25 26 21 11 4 2 2 1 4 9 11 9 8 9 9 7 8 8 7 6 7 7 5 4 5
0 0 0 0 0 0 1 3 5 6 7 9 12 13 14 14 16 19 24 29 35 40 41 32 26 28 27 19 10 5 4 4 7 13 15 13 12 14 14 10 10 10 9 9 7 5 4 4 5
0 0 0 0 0 0 1 3 5 6 7 11 15 17 20 21 21 24 29 36 44 49 48 38 31 31 31 26 19 14 11 9 10 15 20 19 17 18 17 13 12 12 11 9 7 5 5 5 5
0 0 0 0 0 0 0 2 4 5 7 13 18 22 26 29 29 31 34 42 51 56 54 47 40 37 35 30 27 25 23 19 16 19 26 26 22 21 19 16 16 16 14 10 7 5 5 5 6
0 0 0 0 0 0 0 2 4 5 7 13 21 26 31 35 39 42 43 46 57 64 63 56 49 45 40 34 31 31 28 25 23 27 33 34 30 27 24 21 23 24 21 16 10 7 6 4 4
0 0 0 0 0 0 0 2 5 7 7 11 19 26 32 37 46 54 53 50 60 71 71 64 58 54 48 39 32 28 26 25 27 36 41 39 36 34 31 29 28 30 30 26 19 15 11 6 3
0 0 0 0 0 0 0 2 5 8 9 10 15 22 29 36 48 59 58 54 63 74 75 69 66 63 57 48 38 31 30 30 33 42 46 44 41 39 37 35 32 30 31 30 27 24 20 12 4
0 0 0 0 0 0 0 1 5 8 11 13 15 20 27 36 49 61 62 59 65 73 77 76 74 71 65 57 47 40 39 39 39 45 49 49 45 41 39 39 37 33 31 31 29 27 23 16 8
0 0 0 0 0 0 0 1 3 6 10 14 17 21 27 38 50 60 63 64 68 73 78 81 82 79 71 61 53 47 42 40 42 47 50 49 48 45 42 42 41 37 33 32 31 26 21 15 11
0 0 0 0 0 0 0 1 3 5 8 12 17 22 27 37 49 58 64 69 73 75 78 83 86 84 74 63 55 51 45 40 40 44 47 46 47 48 47 45 45 40 35 34 35 31 23 18 16
0 0 0 0 0 0 0 3 6 7 8 10 16 21 26 34 46 57 65 72 78 79 80 85 88 86 76 64 59 57 52 43 40 41 42 43 44 47 50 50 49 44 37 35 36 34 29 25 24
0 0 0 0 0 0 2 6 10 11 11 12 14 19 25 33 42 53 63 72 79 82 83 87 91 88 78 67 62 62 57 48 43 43 41 40 41 45 51 54 52 48 40 34 34 33 32 32 32
0 0 0 0 0 0 3 8 12 14 14 14 15 17 22 30 38 47 56 65 74 80 85 89 92 88 80 71 66 65 62 55 50 49 46 42 42 46 53 55 51 47 41 36 33 31 31 33 34
0 0 0 0 0 0 2 8 14 18 18 16 17 17 21 27 34 42 51 57 64 72 81 89 92 89 83 75 67 64 63 59 55 53 51 49 47 51 57 56 49 44 43 40 36 32 32 33 33
0 0 0 0 0 0 2 7 15 19 18 17 17 19 22 26 31 41 50 56 61 65 74 84 90 89 84 76 68 64 62 61 58 56 55 55 54 56 59 56 48 45 45 43 39 35 33 32 32
0 0 0 0 0 0 2 7 14 17 17 15 16 18 22 27 32 39 51 60 63 64 69 79 86 86 82 76 71 66 64 63 60 58 57 58 59 59 59 55 50 46 45 45 41 37 34 32 32

GEFSSGP_con_prob3kmehi_198.txt.gz
EHI
13 6 1 0 0 0 0 0 0 0 1 0 0 0 0 0 0 0 1 3 4 3 2 4 8 9 6 3 1 1 2 3 3 3 3 3 3 1 0 0 0 0 0 0 0 1 1 1 0
9 6 2 0 0 0 0 0 0 0 1 0 0 0 0 0 1 1 2 4 5 4 2 3 7 8 6 4 3 2 2 3 3 3 3 3 3 2 0 0 0 0 0 0 0 0 0 0 0
7 5 2 0 0 0 0 0 0 0 1 0 0 0 0 0 1 2 4 5 5 4 2 3 7 8 6 4 3 2 1 2 2 2 3 3 2 1 0 0 0 0 0 0 0 0 0 0 0
7 6 4 2 1 0 0 0 0 1 2 2 1 0 0 1 2 3 5 5 4 2 1 3 7 9 7 5 3 1 1 1 1 2 2 2 1 0 0 0 0 0 0 0 0 0 0 0 0
6 6 6 4 1 0 0 0 0 1 3 3 2 1 0 2 5 6 5 3 2 1 0 3 7 10 8 5 2 1 1 1 1 2 1 1 0 0 0 0 0 0 0 0 0 0 0 0 0
7 6 5 3 1 0 0 0 1 2 3 4 3 1 1 5 7 7 5 3 1 0 0 2 5 7 5 4 2 1 1 1 1 1 1 0 0 0 0 0 0 0 0 0 0 0 0 0 0
7 4 2 1 0 0 0 0 1 2 3 3 2 1 1 4 6 7 5 2 0 0 0 1 2 3 3 3 3 2 1 1 0 0 0 1 1 0 0 0 0 0 0 0 0 0 0 0 0
4 2 1 0 0 0 0 0 1 2 3 3 1 0 1 2 4 7 7 3 1 1 0 0 0 1 1 1 2 2 1 0 0 0 1 2 2 1 1 0 0 0 0 0 0 0 0 0 0
3 1 0 0 0 0 1 1 2 3 4 3 1 0 1 3 6 8 8 5 3 2 1 0 0 0 0 0 1 1 0 0 0 0 1 1 1 1 2 1 1 0 0 0 0 0 0 0 0
2 1 0 0 0 0 1 2 2 4 5 3 1 1 2 5 8 9 8 6 5 4 3 1 1 0 0 0 0 0 0 0 0 0 0 1 1 1 2 3 2 1 0 0 0 0 0 0 0
1 0 0 0 0 0 1 1 2 3 3 3 2 1 2 4 7 9 8 7 5 5 4 3 2 1 0 0 0 0 0 0 0 0 0 1 2 2 1 2 2 1 0 0 0 0 0 0 0
0 0 0 0 0 1 1 1 0 1 2 3 3 1 1 2 4 6 7 6 5 5 6 5 5 3 2 1 0 0 0 0 0 0 0 1 2 2 1 1 1 0 0 0 0 0 0 0 0
0 0 0 0 0 1 2 1 1 2 4 4 3 2 1 1 3 4 5 5 5 6 8 9 8 6 5 2 1 0 0 0 0 0 0 0 1 1 0 0 0 0 0 0 0 0 0 0 0
0 0 0 0 0 1 2 3 3 5 7 6 3 1 2 3 4 4 5 6 8 9 10 11 10 8 6 4 1 0 0 0 0 0 0 1 1 0 0 0 0 0 0 0 0 0 0 0 0
0 0 0 0 0 1 2 3 6 8 9 7 3 1 2 5 6 6 8 10 12 14 14 12 9 5 5 3 1 0 0 0 0 0 1 2 2 1 0 0 0 0 0 0 0 0 0 0 0
0 0 0 0 0 0 1 3 7 10 10 7 3 1 2 5 7 8 11 13 14 16 16 12 7 4 4 3 1 0 1 1 1 0 1 3 4 3 1 0 0 0 0 0 0 0 0 0 0
0 0 0 0 0 0 0 2 7 10 9 6 3 2 2 4 9 12 15 17 16 16 16 14 10 6 5 4 1 0 0 0 0 0 2 5 7 6 3 1 0 0 0 0 0 0 0 0 0
0 0 0 0 0 0 0 2 6 8 7 5 4 4 4 7 12 16 21 25 24 22 20 18 14 10 8 6 5 2 1 0 0 1 4 8 11 11 7 3 2 2 1 0 0 0 0 0 0
0 0 0 0 0 0 1 2 4 6 5 5 5 6 8 11 16 22 28 33 35 31 27 25 21 16 12 11 10 8 4 1 0 1 5 11 15 16 12 6 4 3 1 0 0 0 0 0 0
0 0 0 0 0 0 1 2 3 5 7 7 7 9 13 17 23 28 34 39 41 40 35 31 27 21 17 16 14 12 8 3 1 2 5 11 18 20 17 11 8 5 2 1 1 1 0 0 0
0 0 0 0 0 0 0 1 1 4 8 9 8 10 16 23 28 33 36 40 44 44 41 37 33 28 23 20 17 17 14 10 6 4 5 11 17 20 19 17 14 10 6 3 3 2 1 1 0
0 0 0 0 0 0 0 0 1 4 9 10 10 12 17 25 32 36 39 41 44 47 47 45 41 37 32 26 23 22 21 17 11 6 5 8 13 17 19 20 19 16 11 8 5 3 2 1 1
0 0 0 0 0 0 0 0 1 5 8 10 12 13 18 27 36 40 42 43 45 49 53 53 48 43 40 35 29 27 26 20 13 7 5 7 10 14 18 21 21 20 16 12 7 4 2 1 0
0 0 0 0 0 0 0 0 1 4 7 9 12 14 20 29 39 43 45 46 48 52 57 59 55 49 46 41 34 29 26 20 14 10 8 9 10 14 19 21 21 20 19 14 9 6 3 1 0
0 0 0 0 0 0 0 1 3 7 9 11 12 15 21 28 36 41 44 48 53 57 60 62 60 55 50 44 36 31 26 21 17 15 13 12 14 17 20 22 22 21 20 16 11 8 4 1 0
0 0 0 0 0 0 1 3 8 13 16 16 15 16 19 24 31 37 41 46 53 59 62 62 62 59 53 45 38 33 28 24 19 16 14 12 14 18 21 22 23 23 22 19 15 10 6 3 2
0 0 0 0 0 1 3 7 13 18 19 18 18 19 20 23 30 36 39 44 51 58 61 62 62 60 56 49 42 37 32 27 21 16 14 12 12 15 20 22 22 21 21 20 17 12 9 7 6
0 0 0 0 0 1 5 9 14 16 17 17 18 21 22 24 29 35 41 47 53 57 60 62 61 58 55 50 44 37 32 28 22 18 16 14 13 16 21 23 21 19 19 19 16 13 11 10 10
0 0 0 0 0 1 5 9 11 14 16 18 19 19 21 23 27 35 43 51 55 57 59 59 58 56 52 47 41 35 30 26 22 20 19 18 17 19 24 27 25 21 18 17 15 14 12 11 10
0 0 0 0 0 1 5 7 9 13 17 19 19 18 19 23 27 34 45 52 56 57 58 58 56 53 50 45 40 33 28 25 21 19 19 20 21 22 25 30 30 24 18 16 16 15 13 10 10

GEFSSGP_con_prob3kmehi_204.txt.gz
EHI
3 1 0 0 0 0 0 0 0 0 0 0 0 0 0 0 0 0 0 0 0 0 0 0 1 2 3 3 3 4 5 4 3 2 2 2 2 2 1 0 0 0 0 0 0 0 0 0 0
1 0 0 0 0 0 0 0 0 0 0 0 0 0 0 0 0 0 0 0 0 0 0 1 2 2 3 3 3 3 3 4 4 3 1 1 1 1 0 0 0 0 0 0 0 0 0 0 0
1 0 0 0 0 0 0 1 1 1 1 0 0 0 0 1 0 0 0 0 0 0 0 1 3 3 4 4 3 2 1 2 3 3 1 0 0 0 0 0 0 0 0 0 0 0 0 0 0
1 0 0 0 0 0 0 1 2 2 2 1 0 0 0 0 0 0 0 0 0 0 0 1 4 5 5 5 3 1 0 0 1 1 0 0 0 0 0 0 0 0 0 0 0 0 0 0 0
1 0 0 0 0 0 0 0 1 3 3 2 0 0 0 1 1 0 0 0 0 0 0 2 5 7 7 5 2 0 0 0 0 0 0 0 0 0 0 0 0 0 0 0 0 0 0 0 0
0 0 0 0 0 0 0 0 1 2 3 1 0 0 1 1 1 0 0 0 0 0 0 1 4 7 7 5 3 1 0 0 0 0 0 0 0 0 0 0 0 0 0 0 0 0 0 0 0
0 0 0 0 0 0 0 0 1 2 3 1 0 0 1 1 1 0 0 0 0 0 0 0 2 3 4 3 3 2 1 0 0 0 0 0 0 0 0 0 0 0 0 0 0 0 0 0 0
0 0 0 0 0 0 0 0 1 3 3 2 0 0 1 1 1 0 0 0 0 0 0 0 0 1 1 1 2 2 1 0 0 0 0 0 0 0 0 0 0 0 0 0 0 0 0 0 0
0 0 0 0 0 0 0 1 2 3 3 1 0 0 1 3 3 1 0 0 0 0 0 0 0 0 0 0 1 1 1 0 0 0 0 0 0 0 0 0 0 0 0 0 0 0 0 0 0
0 0 0 0 0 0 0 1 2 3 2 1 0 1 4 7 6 2 0 0 0 0 0 0 0 0 0 0 0 0 0 0 0 0 0 0 0 0 0 0 0 0 0 0 0 0 0 0 0
0 0 0 0 0 1 1 1 1 2 1 0 0 2 6 8 6 3 1 0 0 0 0 0 1 1 0 0 0 0 0 0 0 0 0 0 0 0 0 0 0 0 0 0 0 0 0 0 0
0 0 0 0 0 1 2 1 1 0 0 0 1 5 7 6 4 2 1 0 0 0 0 0 1 1 0 0 0 0 0 0 0 0 0 0 0 0 0 0 0 0 0 0 0 0 0 0 0
0 0 0 0 0 0 1 1 0 0 0 0 2 6 6 3 1 1 1 0 0 0 0 0 1 1 0 0 0 0 0 0 0 0 0 0 0 0 0 0 0 0 0 0 0 0 0 0 0
0 0 0 0 0 0 0 0 0 0 0 0 2 4 3 1 0 1 1 1 0 0 0 0 0 0 0 0 0 0 0 0 0 0 0 0 0 0 0 0 0 0 0 0 0 0 0 0 0
0 0 0 0 0 0 0 0 1 1 1 0 1 1 1 0 0 2 3 2 1 0 0 0 0 0 0 0 0 0 0 0 0 0 0 0 0 0 0 0 0 0 0 0 0 0 0 0 0
0 0 0 0 0 0 0 0 1 3 2 1 0 0 0 0 0 1 3 3 1 0 0 0 0 0 0 0 0 0 0 0 0 0 0 0 0 0 0 0 0 0 0 0 0 0 0 0 0
0 0 0 0 0 0 0 0 1 3 3 1 0 0 0 0 0 1 2 3 1 0 0 0 0 0 0 0 0 0 0 0 0 0 0 0 0 0 0 0 0 0 0 0 0 0 0 0 0
0 0 0 0 0 0 0 0 1 2 2 1 0 0 0 0 0 1 3 4 3 1 0 0 0 0 0 0 0 1 1 0 0 0 0 0 0 1 1 0 0 0 1 1 1 0 0 0 0
0 0 0 0 0 0 0 0 0 1 1 1 0 0 0 0 0 1 3 5 5 3 2 0 0 0 0 0 1 2 2 1 1 1 1 1 1 2 2 1 1 1 2 2 1 0 0 0 0
0 0 0 0 0 0 0 0 0 0 0 0 1 1 1 1 1 2 4 6 6 6 5 2 1 0 0 1 1 2 3 3 2 2 2 2 2 2 1 1 2 2 3 3 2 1 1 1 1
0 0 0 0 0 0 0 0 0 0 0 0 1 2 3 2 3 4 6 8 9 10 8 4 2 1 0 0 1 2 3 3 4 3 1 1 1 1 0 1 1 2 3 3 3 3 2 2 2
0 0 0 0 0 0 0 0 0 0 0 0 1 2 3 3 4 7 10 12 13 13 10 6 3 2 1 0 2 2 3 3 4 2 1 0 0 0 0 0 0 1 2 3 3 3 3 3 3
0 0 0 0 0 0 0 0 0 0 0 0 0 1 3 3 5 10 14 15 17 17 14 9 5 3 2 3 5 6 4 3 3 2 1 0 0 0 0 0 0 1 1 3 3 3 3 3 3
0 0 0 0 0 0 0 1 2 2 2 2 1 2 3 4 7 12 16 18 21 22 20 15 9 6 5 6 7 7 6 4 3 2 1 0 0 0 1 1 2 2 3 5 5 4 4 3 3
0 0 0 0 0 0 1 2 2 3 5 5 3 2 4 6 9 13 17 20 23 25 24 20 16 11 8 7 6 6 5 5 6 5 2 1 1 1 2 3 3 3 5 6 6 6 5 4 3
0 0 0 0 0 0 1 1 2 3 6 6 4 3 5 7 9 12 17 21 24 27 27 26 22 16 12 9 8 6 6 6 6 5 3 3 3 4 4 5 4 4 4 5 6 6 6 4 4
0 0 0 0 0 0 0 0 1 3 6 7 7 6 6 7 8 10 15 20 24 28 31 30 25 18 15 13 11 8 6 6 6 5 5 5 5 5 6 6 6 5 4 5 6 6 6 6 5
0 0 0 0 0 0 0 0 1 3 6 9 11 10 9 9 9 11 16 22 25 29 33 31 24 19 18 17 14 10 7 5 5 5 5 6 5 5 6 7 8 8 7 6 7 7 7 8 9
0 0 0 0 0 0 0 1 1 2 5 10 12 11 11 12 12 15 21 26 29 31 33 31 25 22 22 21 18 14 9 6 3 3 4 4 4 4 6 8 9 9 8 7 8 9 8 9 11
0 0 0 0 0 0 1 2 2 2 5 9 11 12 13 14 14 18 24 29 31 32 34 32 27 25 24 23 21 18 13 7 3 1 2 2 2 4 7 9 9 10 9 7 8 10 9 10 11

GEFSSGP_con_prob3kmehi_210.txt.gz
EHI
6 4 6 9 7 2 0 0 0 0 0 0 0 0 0 0 0 0 0 0 0 0 0 0 1 1 1 1 0 0 0 0 0 0 0 0 0 0 0 0 0 0 0 0 0 0 0 0 0
2 3 7 10 6 2 0 0 0 0 0 0 0 0 0 0 0 0 0 0 0 0 0 1 2 1 1 1 0 0 0 0 0 0 0 0 0 0 0 0 0 0 0 0 0 0 0 0 0
3 6 9 8 4 1 0 0 0 0 0 0 0 0 0 0 0 0 0 0 0 0 0 1 2 1 1 0 0 0 0 0 0 0 0 0 0 0 0 0 0 0 0 0 0 0 0 0 0
9 11 10 5 1 0 0 0 0 0 1 1 0 0 0 0 0 0 0 0 0 0 0 0 1 1 0 0 0 0 0 0 0 0 0 0 0 0 0 0 0 0 0 0 0 0 0 0 0
11 12 8 3 0 0 0 0 0 0 1 2 1 0 1 2 1 0 0 0 0 0 0 1 1 1 0 0 0 0 0 0 0 0 0 0 0 0 0 0 0 0 0 0 0 0 0 0 0
8 6 3 1 0 0 0 0 0 0 2 2 1 0 2 3 2 1 0 0 0 0 0 1 1 1 0 0 0 0 0 0 0 0 0 0 0 0 0 0 0 0 0 0 0 0 0 0 0
3 2 0 0 0 0 0 0 0 0 1 2 1 0 1 3 2 1 0 0 0 0 1 1 0 0 0 0 0 0 0 0 0 0 0 0 0 0 0 0 0 0 0 0 0 0 0 0 0
1 0 0 0 0 0 0 0 0 0 1 2 1 0 1 3 3 1 0 0 0 0 0 0 0 0 0 0 0 0 0 0 0 0 0 0 0 0 0 0 0 0 0 0 0 0 0 0 0
1 0 0 0 0 0 0 0 0 0 1 2 1 1 3 5 5 3 1 0 0 0 0 0 0 0 0 0 0 0 0 0 0 0 0 1 1 0 0 0 0 0 0 0 0 0 0 0 0
1 0 0 0 0 0 0 0 0 0 1 1 1 3 6 7 7 5 2 0 0 0 0 0 0 0 0 0 0 0 0 0 0 0 1 2 2 1 1 1 1 0 0 0 0 0 0 0 0
0 0 0 0 0 0 0 0 0 0 0 1 3 8 11 10 7 6 3 1 1 0 0 1 1 1 0 0 0 0 0 0 0 0 1 2 2 2 2 2 1 0 0 0 0 0 0 0 0
0 0 0 0 0 0 0 0 0 0 0 1 4 10 12 10 7 4 3 2 2 1 1 2 2 2 1 1 0 0 0 0 0 0 0 1 1 1 1 1 1 0 0 0 0 0 0 0 0
0 0 0 0 0 0 0 0 0 0 0 1 4 8 9 7 5 3 2 3 3 2 1 2 3 3 3 2 1 0 0 0 0 0 0 0 0 1 1 1 0 0 0 0 1 0 0 0 0
0 0 0 0 0 0 0 0 0 0 0 2 4 5 5 5 4 3 1 2 3 3 3 3 4 3 3 3 2 1 1 0 0 0 1 1 1 2 4 3 1 0 1 1 1 1 0 0 0
0 0 0 0 0 0 0 0 1 1 3 4 5 4 4 3 3 2 1 2 4 5 5 5 4 4 3 3 3 2 1 0 0 0 1 2 3 4 5 5 3 2 2 3 3 2 2 1 1
0 0 0 0 0 0 0 1 2 3 5 7 7 5 4 2 2 2 2 2 4 6 6 5 3 3 4 4 4 3 3 3 2 2 2 4 5 5 5 5 5 4 4 5 4 3 4 3 3
0 0 0 0 0 0 0 1 2 3 5 7 7 5 4 2 1 3 4 4 5 6 7 5 4 4 4 5 5 5 5 6 6 4 4 5 5 5 4 4 4 4 4 4 3 3 3 4 5
0 0 0 0 0 0 0 1 2 2 3 6 8 6 4 2 1 3 6 7 8 9 9 9 8 7 5 5 6 7 6 6 6 5 5 5 4 3 3 3 2 2 2 1 1 1 3 5 6
0 0 0 0 0 0 0 0 1 2 2 5 9 9 5 3 4 5 8 12 14 14 14 14 14 12 9 7 7 6 5 4 4 4 4 4 3 2 2 2 3 3 2 2 2 3 5 6 7
0 0 0 0 0 0 0 0 1 2 2 4 8 9 7 6 9 12 14 17 20 20 20 19 18 17 14 10 8 6 4 3 3 3 3 2 1 1 2 3 4 4 5 6 7 9 9 9 9
0 0 0 0 0 0 0 0 1 2 3 5 7 8 7 8 14 19 20 21 24 25 24 21 21 21 19 15 10 7 5 3 2 2 3 3 2 2 3 4 6 7 8 9 12 12 13 13 12
0 0 0 0 0 0 0 0 1 2 4 6 8 8 6 7 13 20 21 20 23 25 24 23 25 26 26 22 16 12 9 4 3 3 3 4 3 3 4 7 11 13 13 14 14 13 14 16 14
0 0 0 0 0 0 0 0 0 2 6 8 9 9 8 6 10 17 19 19 19 22 25 26 28 29 31 28 23 19 13 7 6 6 6 6 5 4 5 7 12 14 15 16 15 13 15 16 15
0 0 0 0 0 0 0 0 1 3 7 8 8 9 10 7 9 16 19 20 21 23 26 29 32 34 35 32 27 25 20 14 12 10 9 8 5 3 4 6 9 12 12 14 16 16 17 18 16
0 0 0 0 0 0 0 0 2 6 8 7 6 9 10 10 12 18 22 25 28 30 30 34 39 42 40 35 32 30 26 20 16 14 11 8 5 2 3 5 9 11 11 12 14 17 20 21 20
0 0 0 0 0 0 0 1 4 7 8 7 7 9 11 13 15 20 24 27 32 34 36 41 48 50 46 40 36 33 28 21 17 15 12 7 4 3 4 6 8 10 11 12 13 14 18 21 22
0 0 0 0 0 0 0 1 3 7 9 9 11 13 14 15 16 19 23 26 29 34 39 46 53 56 52 45 38 32 27 23 19 18 16 12 9 8 8 8 8 11 13 14 14 14 16 20 21
0 0 0 0 0 0 0 1 3 8 12 15 18 20 20 19 19 21 23 24 26 32 40 47 54 57 54 47 39 32 28 26 24 22 22 20 17 14 13 13 14 14 14 14 16 18 19 21 22
0 0 0 0 0 0 0 1 5 10 17 22 25 27 26 24 22 23 24 24 27 33 43 50 53 53 51 47 42 36 31 28 26 25 26 26 23 19 18 19 18 16 15 16 19 22 24 25 25
0 0 0 0 0 0 1 2 5 11 19 26 28 29 29 26 24 22 24 26 30 37 47 54 55 51 47 45 43 39 35 30 26 25 26 28 27 22 20 20 19 17 17 19 22 24 26 28 30

GEFSSGP_con_prob3kmehi_216.txt.gz
EHI
5 9 18 30 30 16 3 0 0 0 0 0 0 1 0 0 0 0 1 2 2 1 1 3 3 1 0 0 0 0 0 0 0 0 0 1 0 0 0 0 0 0 0 0 0 0 1 1 1
8 16 25 29 22 9 1 0 0 0 0 0 0 1 0 0 0 0 1 2 2 1 1 3 3 1 0 0 0 0 0 0 0 0 0 1 0 0 0 0 0 0 0 0 0 0 0 0 0
16 25 29 22 11 3 0 0 0 0 0 0 1 1 0 0 1 1 2 3 2 2 2 3 3 2 1 0 0 0 0 0 0 0 0 0 0 0 0 0 0 0 0 0 0 0 0 0 0
25 30 27 14 4 0 0 0 0 0 0 1 2 2 1 1 1 2 2 3 3 4 4 5 6 4 2 1 0 0 0 0 0 0 0 0 0 0 0 0 0 0 0 0 0 0 0 0 0
29 27 19 8 1 0 0 0 0 0 0 1 3 3 2 1 1 1 1 2 4 6 6 6 8 7 4 1 0 0 0 0 0 0 0 1 1 0 0 0 0 0 0 0 0 0 0 0 0
27 20 10 3 0 0 0 0 0 0 0 1 3 4 2 0 0 1 1 2 4 7 7 6 8 7 3 1 1 1 1 1 1 1 1 2 2 1 0 0 0 0 0 1 1 1 1 0 0
22 15 5 1 0 0 0 0 0 0 0 0 2 4 3 1 1 2 2 3 5 8 7 5 5 4 2 1 1 2 2 2 2 2 3 3 3 2 1 1 1 1 1 1 2 3 2 1 0
13 7 2 0 0 0 0 0 0 0 0 0 2 4 5 4 3 2 3 4 6 6 6 4 2 1 0 0 2 3 3 3 3 3 4 4 3 3 4 3 3 3 3 3 3 3 3 3 2
4 2 0 0 0 0 0 0 0 0 0 1 3 5 7 7 5 4 3 4 5 5 3 2 1 0 0 1 3 4 4 4 3 3 4 3 2 3 4 5 5 5 4 3 3 4 5 5 6
2 1 0 0 0 0 0 0 1 1 2 5 8 8 8 8 7 6 5 4 5 4 2 0 0 0 0 2 4 5 5 6 5 4 4 3 2 2 3 6 7 6 5 4 5 6 7 6 6
1 0 0 0 0 0 0 0 1 2 4 9 14 13 10 9 8 7 7 7 7 4 2 1 1 1 1 2 4 4 4 7 7 6 7 7 4 2 2 5 7 7 6 6 7 8 7 5 4
0 0 0 0 0 0 0 0 0 2 5 12 17 15 11 9 9 9 10 11 10 6 3 4 6 7 5 3 2 2 2 4 6 8 9 9 7 4 2 3 4 6 7 8 9 9 8 5 3
0 0 0 0 0 0 0 0 1 2 5 10 14 12 9 8 10 11 11 13 14 11 7 8 12 13 9 4 2 1 1 1 5 9 9 8 7 6 4 4 5 5 6 9 10 9 8 7 5
0 0 0 0 0 0 0 0 2 4 5 8 12 11 8 8 10 13 13 15 20 22 17 15 17 17 12 5 2 2 1 1 6 11 13 11 9 10 9 9 9 8 8 10 11 9 7 7 7
0 0 0 0 0 0 0 1 3 6 6 7 11 12 10 9 11 14 17 20 28 33 30 23 21 20 15 7 4 3 2 2 6 13 17 16 15 15 14 13 13 12 11 13 14 11 7 6 7
0 0 0 0 0 0 0 1 5 6 6 7 10 13 13 14 14 16 22 29 38 43 39 28 20 20 17 10 5 4 4 4 7 13 19 21 18 16 15 14 13 12 12 14 14 12 9 7 6
0 0 0 0 0 0 0 2 4 5 5 7 11 16 19 21 21 23 28 36 46 51 47 33 24 22 18 11 8 6 7 7 9 14 20 22 19 16 15 15 15 13 12 12 10 10 11 11 9
0 0 0 0 0 0 0 2 4 4 4 8 15 22 26 27 30 33 34 39 48 56 54 44 36 30 22 13 10 8 8 8 8 13 21 22 17 17 18 19 20 17 14 12 10 10 14 16 16
0 0 0 0 0 0 0 1 3 3 5 11 21 31 35 34 38 43 43 43 49 60 63 56 49 42 31 20 13 10 7 5 5 12 22 24 18 16 18 19 20 21 19 17 14 13 16 19 20
0 0 0 0 0 0 0 1 3 3 6 14 26 36 40 42 48 56 55 50 55 66 70 64 59 54 41 28 18 11 7 6 6 14 25 28 22 17 15 16 17 18 20 20 18 17 19 20 20
0 0 0 0 0 0 0 1 2 4 7 15 26 34 39 46 58 67 65 59 61 69 71 67 67 65 52 35 23 17 13 12 13 21 28 30 25 20 16 16 17 17 19 21 21 21 22 20 18
0 0 0 0 0 0 0 0 2 5 8 14 22 28 34 45 60 69 69 64 63 67 69 70 73 72 61 45 31 25 22 17 18 24 29 29 25 21 20 21 23 22 21 21 21 23 23 18 14
0 0 0 0 0 0 0 0 1 4 8 11 16 23 30 40 54 65 69 67 64 65 70 74 77 75 67 54 42 35 27 20 21 27 31 32 29 25 23 25 29 28 23 20 22 24 23 16 12
0 0 0 0 0 0 0 0 2 5 6 8 12 17 25 36 48 59 68 70 68 67 71 76 79 77 70 60 51 43 34 29 30 34 37 36 33 30 27 28 32 31 26 23 24 25 23 19 16
0 0 0 0 0 0 0 1 5 7 7 7 9 12 19 30 42 54 66 72 72 71 74 78 80 79 72 63 57 51 43 39 39 38 38 36 33 32 34 35 38 35 28 25 26 25 22 21 21
0 0 0 0 0 0 0 3 7 9 8 7 8 12 18 27 37 49 60 68 70 71 75 79 82 80 73 66 62 57 50 44 41 37 34 32 31 32 37 43 43 38 30 26 25 24 21 21 21
0 0 0 0 0 0 0 3 8 10 10 10 12 16 21 26 34 43 52 58 64 69 75 79 82 80 74 68 64 61 55 49 44 39 33 30 30 32 38 45 43 38 30 24 23 23 22 22 21
0 0 0 0 0 0 0 3 8 12 13 14 16 20 24 27 31 39 46 51 57 65 73 78 81 80 75 69 65 62 60 54 48 42 36 33 33 36 42 46 43 38 32 26 23 24 24 24 23
0 0 0 0 0 0 0 2 7 13 15 16 18 22 26 28 32 38 46 51 55 61 70 77 79 78 74 68 63 62 62 57 50 45 41 39 39 42 45 45 42 39 36 32 30 27 25 26 26
0 1 1 1 0 0 0 2 7 11 14 15 19 24 28 30 33 39 47 54 55 61 69 75 76 75 72 67 63 63 62 56 52 48 46 44 44 46 46 44 41 39 37 37 35 30 26 27 30

GEFSSGP_con_prob3kmehi_222.txt.gz
EHI
7 3 1 0 0 0 0 0 0 0 1 0 0 1 0 0 0 0 0 0 0 0 0 1 2 3 4 6 6 6 7 7 7 6 6 6 5 5 5 4 1 0 0 0 0 0 0 0 0
3 2 1 0 0 0 0 0 0 1 2 1 0 1 0 0 0 0 0 0 0 0 0 1 2 3 5 7 7 6 6 5 6 6 6 6 7 6 5 3 1 0 0 0 0 0 0 0 0
1 2 2 2 1 0 0 0 2 3 2 1 1 1 0 0 0 0 0 0 0 0 0 1 2 3 5 7 7 6 4 4 4 4 4 5 7 6 4 2 0 0 0 0 0 0 0 0 0
2 4 5 4 2 0 0 1 3 3 2 2 2 1 0 0 0 0 0 0 0 0 0 0 2 3 3 4 5 5 4 3 2 3 3 4 4 4 2 0 0 0 0 0 0 0 0 0 0
6 8 8 6 2 0 0 1 3 3 3 3 3 1 0 0 0 0 0 0 0 0 0 1 2 2 1 1 2 2 2 2 1 2 3 3 3 2 1 0 1 0 0 0 0 0 0 0 0
10 9 7 4 1 0 0 2 3 4 4 4 3 1 0 1 2 1 0 0 0 0 0 1 2 1 0 0 1 1 1 1 0 1 2 3 3 1 0 0 0 0 0 0 0 0 0 0 0
10 7 5 2 0 0 0 2 3 3 3 3 2 1 0 2 3 1 0 0 0 1 1 1 1 0 0 0 1 1 1 1 1 1 2 3 3 1 0 0 0 0 1 1 1 1 0 0 1
8 5 3 2 0 0 0 1 2 3 3 3 1 0 1 4 5 3 1 0 1 1 1 0 0 0 0 0 1 2 2 2 2 2 2 4 3 1 0 0 0 1 2 2 2 2 1 2 2
7 4 1 1 0 0 0 0 1 2 3 2 2 3 6 9 9 6 4 3 3 2 1 0 0 0 0 0 0 1 2 2 1 1 1 2 2 0 0 0 1 2 4 4 4 4 4 4 3
7 4 1 0 0 0 0 0 1 3 5 5 7 10 14 16 14 11 7 6 6 4 1 1 1 0 0 0 0 0 1 1 0 0 0 0 0 0 0 0 1 3 4 4 3 4 5 3 2
4 3 1 0 0 0 0 0 2 4 6 9 13 17 20 20 16 12 9 8 7 5 2 1 0 0 0 0 0 0 0 0 0 0 0 0 0 0 0 0 1 1 1 1 1 2 2 1 0
1 1 1 1 1 0 0 0 2 3 5 9 14 18 20 20 15 10 8 9 8 6 3 1 0 0 0 0 0 0 0 0 0 0 0 1 1 0 0 0 0 0 0 0 0 0 0 0 0
0 0 1 2 1 1 1 2 2 4 6 8 11 14 16 17 13 9 8 10 10 8 5 2 1 0 0 0 0 0 0 0 0 0 1 3 3 1 0 0 0 0 0 0 0 0 0 0 0
0 0 1 1 1 1 1 3 6 9 11 11 10 11 12 13 13 11 11 13 14 13 10 7 5 3 1 0 0 0 0 0 0 1 2 4 5 3 1 0 0 0 0 0 0 0 0 0 0
0 0 0 0 0 0 1 4 10 15 16 13 11 10 10 11 13 15 16 17 19 19 17 13 10 7 3 1 0 0 0 0 0 1 2 5 5 4 2 0 0 1 1 0 0 0 0 0 0
0 0 0 0 0 0 1 4 11 16 16 14 11 10 9 10 13 17 20 20 22 23 20 16 13 9 4 1 0 0 0 0 0 0 2 4 6 6 4 2 1 1 1 0 0 0 1 1 0
0 0 0 0 0 0 0 4 10 13 13 14 12 10 9 11 14 19 23 24 23 23 20 15 12 8 3 1 0 0 1 1 1 0 1 2 4 6 5 3 1 1 1 0 0 0 1 1 1
0 0 0 0 0 0 0 4 9 11 11 14 15 14 12 14 18 23 28 28 27 26 23 18 13 9 4 2 2 0 1 2 1 0 0 1 3 5 5 2 0 0 0 0 0 0 1 1 0
0 0 0 0 0 0 1 4 8 11 12 15 19 19 16 16 21 31 37 37 35 33 29 24 19 13 8 5 3 2 1 1 1 0 0 1 2 4 4 1 0 0 0 0 0 0 0 0 0
0 0 0 0 0 0 1 3 7 10 11 13 17 21 21 20 26 40 48 47 44 40 35 30 25 19 13 8 4 3 1 0 0 0 0 1 2 4 3 2 1 0 0 0 1 1 0 0 0
0 0 0 0 0 0 0 1 4 8 10 11 14 20 24 26 31 42 51 53 49 44 39 35 32 27 18 11 7 5 4 2 0 0 0 1 2 3 4 4 3 2 1 0 0 1 1 0 0
0 0 0 0 0 0 0 0 2 6 10 11 14 19 24 28 34 41 48 51 50 47 43 39 37 34 26 18 14 10 7 3 1 0 0 1 1 3 5 6 5 4 3 3 2 1 0 0 0
0 0 0 0 0 0 0 0 2 7 10 12 14 17 22 29 34 39 43 46 48 49 47 43 41 40 33 26 21 16 10 4 1 1 1 0 0 2 5 6 6 7 8 8 6 3 1 0 0
0 0 0 0 0 0 0 0 2 5 8 10 11 15 23 30 35 37 39 42 46 50 52 50 47 43 38 32 26 20 13 7 4 2 2 1 1 2 5 6 7 9 11 10 8 5 3 2 1
0 0 0 0 0 0 0 0 1 3 6 9 10 14 22 30 36 37 36 38 43 50 55 57 54 47 41 35 29 22 17 12 7 4 3 3 4 4 5 7 9 11 11 9 8 6 6 5 4
0 0 0 0 0 0 0 0 1 3 7 10 11 14 20 28 35 39 37 36 41 49 55 58 58 52 45 40 32 24 19 16 10 5 4 4 5 6 6 8 9 10 9 9 7 7 6 7 7
0 0 0 0 0 0 0 0 1 3 7 10 13 16 20 25 32 38 37 34 39 47 52 57 59 56 51 45 37 29 23 18 13 9 8 8 9 10 11 11 10 8 8 9 8 7 7 8 9
0 0 0 0 0 0 0 0 1 4 7 9 13 17 20 23 28 32 33 33 39 45 51 56 59 59 56 50 43 35 29 23 18 15 14 14 13 14 14 13 11 8 7 8 9 9 7 8 10
0 0 0 0 0 0 0 0 2 5 8 10 14 18 22 25 26 27 28 30 37 44 51 57 62 62 58 52 47 41 34 29 25 20 18 16 16 15 15 13 12 10 8 8 11 11 9 8 9
0 0 0 0 0 0 0 0 2 5 9 12 16 20 23 27 27 26 26 29 34 43 52 59 64 63 58 53 49 44 37 32 29 23 18 17 17 16 15 14 13 11 9 9 13 14 12 8 7

GEFSSGP_con_prob3kmehi_228.txt.gz
EHI
3 3 3 3 3 3 2 2 2 2 3 3 3 3 3 3 2 3 3 3 3 3 3 3 5 6 7 7 8 6 4 3 3 4 4 5 4 3 3 3 3 3 3 3 3 2 2 3 3
3 3 3 3 3 3 2 2 2 3 3 3 3 3 3 3 3 3 3 3 3 3 3 3 4 5 5 6 8 7 5 4 4 4 6 6 4 3 3 3 3 3 3 3 2 1 1 2 2
3 3 3 3 3 3 2 2 3 3 3 3 3 3 3 3 3 3 3 3 3 3 3 3 3 4 5 6 8 7 5 5 6 6 7 7 5 3 3 3 3 3 3 3 2 1 1 1 1
2 3 3 3 3 3 3 3 3 3 3 3 3 3 3 3 3 3 3 3 3 3 3 3 3 4 6 8 9 8 6 5 6 6 7 6 5 3 3 3 3 3 3 3 3 2 2 1 0
1 1 3 3 3 3 3 3 3 3 3 3 3 3 3 3 3 3 3 3 3 3 3 3 4 4 6 8 8 8 7 5 5 6 6 6 5 4 3 3 3 3 3 3 3 3 2 1 0
1 1 3 3 1 1 3 3 3 3 3 3 3 3 3 3 3 3 3 3 3 3 3 4 4 5 5 6 6 7 6 5 5 6 6 5 4 3 3 3 3 3 3 3 3 3 2 1 0
2 2 2 2 1 1 2 3 3 3 3 3 3 3 3 3 3 3 3 3 3 3 3 3 4 4 4 4 4 5 5 4 4 5 4 4 3 3 3 3 3 3 3 3 2 2 2 1 0
1 1 1 1 0 1 3 4 3 3 3 3 3 3 3 4 4 4 4 3 3 3 3 3 3 3 3 3 3 3 4 3 3 4 3 3 3 3 3 3 3 3 2 1 1 1 1 1 0
1 0 0 0 0 1 4 5 4 3 3 3 3 4 4 5 6 6 5 4 4 4 3 3 3 3 3 3 3 3 3 3 3 3 3 3 3 3 3 3 3 2 1 0 0 0 1 1 1
2 1 0 0 0 2 5 6 4 4 4 4 5 7 7 7 6 6 6 6 6 5 4 3 3 3 3 3 3 3 3 3 3 3 3 3 3 3 3 3 3 2 1 1 1 1 1 1 0
3 2 0 0 0 2 5 5 5 6 5 5 9 13 12 9 7 6 6 6 6 6 4 3 3 3 2 2 2 2 2 2 3 3 3 3 2 2 2 2 2 2 2 2 2 2 1 0 0
1 1 0 0 0 1 4 4 5 7 6 7 13 17 16 11 7 4 5 6 6 6 5 3 2 1 1 1 1 1 1 1 1 3 3 2 1 0 1 1 1 2 2 2 1 1 1 0 0
0 0 0 0 0 1 3 3 4 6 7 11 16 18 16 11 6 3 4 6 6 6 5 3 1 0 0 0 0 0 0 0 1 2 2 1 0 0 0 0 0 1 1 1 1 1 0 0 0
0 0 0 0 1 2 3 3 4 6 11 15 17 16 14 10 5 3 4 5 6 6 4 3 2 1 1 1 0 0 0 0 0 1 1 0 0 0 0 0 0 0 1 1 2 2 1 1 1
0 0 0 1 2 3 4 4 4 9 15 18 18 16 12 8 5 3 4 4 4 4 4 3 2 1 1 1 0 0 0 0 0 0 0 0 0 0 0 0 0 0 1 2 3 3 3 2 2
0 0 0 1 2 3 4 3 5 11 17 20 18 15 11 6 4 4 5 6 5 3 3 2 1 0 1 1 0 0 0 0 0 0 0 0 0 0 0 0 0 0 1 3 3 3 3 3 3
0 0 0 0 1 3 3 3 5 11 15 18 17 15 11 6 4 4 6 7 7 5 3 3 1 0 0 0 0 0 0 0 0 0 0 0 0 0 0 0 0 1 2 3 3 3 3 3 2
0 0 0 0 1 2 3 3 5 7 10 12 14 15 12 8 4 3 5 6 7 6 5 5 3 1 1 1 0 0 0 0 0 0 0 0 0 0 0 1 1 2 3 3 3 3 3 3 3
0 0 0 0 0 2 3 4 5 5 6 8 11 15 14 9 5 3 4 6 8 8 7 6 5 4 3 2 1 0 0 0 0 0 0 0 1 1 1 2 3 3 3 3 3 3 3 3 3
0 0 0 0 1 2 3 4 5 5 5 6 8 12 14 11 6 6 7 10 12 13 11 8 7 5 4 3 2 1 0 0 0 0 0 0 1 2 2 3 3 3 3 3 3 3 3 3 3
0 0 0 0 1 2 3 3 4 4 4 3 3 7 11 11 9 10 13 15 18 18 14 10 8 7 6 4 4 3 2 2 1 1 1 1 1 2 3 3 3 3 3 3 3 3 3 3 3
0 0 0 0 0 1 1 3 3 3 3 1 1 3 7 10 12 13 15 18 20 20 17 12 10 8 7 6 6 7 6 4 3 2 2 2 2 3 3 3 3 3 3 3 3 3 3 3 3
0 0 0 0 0 0 1 2 3 3 3 1 0 1 4 8 12 14 15 16 18 19 18 14 12 10 9 8 8 9 8 6 4 4 4 3 3 3 3 3 3 3 4 4 4 3 3 3 3
0 0 0 0 0 0 0 1 1 3 3 2 1 1 3 6 10 14 14 14 16 18 18 16 15 14 13 13 11 10 10 8 6 6 6 5 5 4 4 3 3 4 4 5 4 4 4 3 3
0 0 0 0 0 0 0 0 1 3 4 4 3 2 2 5 10 14 15 15 18 20 20 20 20 19 19 18 17 15 13 12 10 9 8 8 7 6 5 5 5 5 5 5 4 4 4 4 4
0 0 0 0 0 0 0 1 2 3 5 5 4 3 3 5 10 15 16 17 21 24 23 24 24 22 22 22 21 20 18 16 14 11 10 9 7 6 7 8 8 8 7 5 4 3 4 5 6
0 0 0 0 0 0 1 2 3 3 4 5 6 5 5 7 10 14 18 21 24 26 26 27 28 27 25 24 24 23 21 19 16 13 12 11 8 7 8 10 9 9 8 6 4 4 4 5 6
0 0 0 0 0 0 1 2 3 3 3 5 7 8 8 8 9 13 19 23 25 26 28 29 31 32 30 27 26 24 21 19 17 16 16 14 10 8 8 9 9 8 8 7 5 5 6 6 6
0 0 0 0 0 0 1 1 2 3 4 5 7 9 9 9 10 13 19 24 25 25 27 30 32 33 32 30 27 23 20 18 18 19 19 17 12 8 7 8 8 9 8 8 7 8 9 9 9
0 0 0 0 0 0 0 1 1 3 5 6 6 8 9 10 11 15 21 24 25 25 28 30 30 30 31 30 26 23 20 18 18 19 20 17 11 7 6 7 9 10 9 9 9 10 11 12 12

GEFSSGP_con_prob3kmehi_234.txt.gz
EHI
4 3 3 8 9 3 0 0 0 0 0 0 0 0 0 0 0 0 0 1 2 1 0 1 2 3 3 4 4 3 1 0 0 0 1 0 0 0 0 0 0 0 0 0 0 0 0 0 0
2 3 6 10 7 2 0 0 0 0 0 0 0 0 0 0 0 0 0 1 1 1 0 0 2 2 3 4 4 3 2 1 0 0 1 0 0 0 0 0 0 0 0 0 0 0 0 0 0
3 7 11 10 4 0 0 0 0 0 0 0 0 0 0 0 0 0 0 0 0 0 0 1 2 3 3 3 4 3 2 1 0 0 0 0 0 0 1 1 0 0 0 0 0 0 0 0 0
8 13 13 6 1 0 0 0 0 0 0 0 0 0 0 0 0 0 0 0 0 0 0 1 2 2 2 2 2 1 1 0 0 0 0 0 0 0 1 1 0 0 0 0 0 0 0 0 0
11 12 7 2 0 0 0 0 0 0 0 0 0 0 0 0 0 0 0 0 0 0 0 0 1 1 0 1 1 1 0 0 0 0 0 0 0 0 1 1 0 0 0 0 0 0 0 0 0
8 6 2 0 0 0 0 0 0 0 0 0 0 0 0 0 0 0 0 0 0 0 0 0 0 0 0 1 1 1 0 0 0 0 1 0 0 0 0 0 0 0 0 0 0 0 0 0 0
3 2 0 0 0 0 0 0 0 0 0 0 0 0 0 1 0 0 0 0 0 0 0 0 0 0 0 1 1 1 0 0 0 0 0 0 0 0 0 0 0 0 0 0 0 0 0 0 0
1 0 0 0 0 0 0 0 0 0 0 0 0 0 1 3 2 0 0 0 0 0 0 0 0 0 0 1 1 0 0 0 0 0 0 0 0 0 0 0 0 0 0 0 0 0 0 0 0
2 1 0 0 0 0 0 0 0 0 0 0 0 1 4 6 4 1 1 1 0 0 0 0 0 0 0 0 0 0 0 0 0 0 0 0 0 0 0 0 1 0 0 0 0 0 0 0 0
4 1 0 0 0 0 0 0 0 0 0 0 1 4 8 8 5 3 2 2 1 0 0 0 0 0 0 0 0 0 0 0 0 0 0 0 0 0 0 0 0 0 0 0 0 0 0 0 0
3 1 0 0 0 0 0 0 0 0 0 1 4 8 10 8 5 3 3 3 2 1 0 0 0 0 0 0 0 0 0 0 0 0 0 0 0 0 0 0 0 0 0 0 0 1 0 0 0
1 0 0 0 0 0 0 0 1 1 1 1 6 11 13 10 6 3 3 3 3 1 0 0 0 0 0 0 0 0 0 1 1 0 0 0 0 0 0 0 0 0 0 0 0 0 0 0 0
0 0 0 0 0 0 0 0 1 2 2 3 7 12 15 12 6 3 2 2 2 1 0 0 0 0 0 0 0 0 0 0 1 1 1 0 1 1 0 0 0 0 0 0 0 0 0 0 0
0 0 0 0 0 0 0 0 2 3 4 6 8 10 13 11 7 3 2 1 1 1 0 0 0 0 0 0 0 0 0 0 1 1 1 0 1 2 1 1 0 0 1 1 1 0 0 0 0
0 0 0 0 0 0 0 0 2 4 6 8 9 9 9 8 6 4 1 0 0 0 0 0 0 0 0 0 0 0 0 0 0 0 0 0 1 2 2 2 1 1 2 2 1 1 0 0 0
0 0 0 0 0 0 0 0 2 5 7 8 10 10 9 7 6 4 2 1 0 1 1 0 0 0 0 0 0 0 0 0 0 0 0 0 0 1 1 2 2 2 3 2 1 1 0 0 0
0 0 0 0 0 0 0 0 2 5 7 9 11 12 10 9 8 7 4 2 2 2 3 3 3 2 1 1 1 1 1 0 0 0 0 0 0 0 1 1 2 2 2 2 1 1 0 0 0
0 0 0 0 0 0 0 0 1 4 6 8 10 11 11 10 11 11 8 5 4 6 8 8 7 5 3 2 2 2 1 0 0 0 0 0 0 1 2 2 2 2 3 3 2 1 0 0 1
0 0 0 0 0 0 0 0 1 3 5 8 10 10 10 10 12 14 12 10 10 12 13 12 10 8 5 4 3 3 1 0 0 0 0 0 1 1 2 2 3 3 5 5 2 1 0 1 2
0 0 0 0 0 0 0 0 1 2 3 7 9 10 10 11 14 17 17 18 19 19 17 14 12 11 9 7 5 3 2 1 1 1 1 2 3 3 2 2 2 3 4 4 3 3 2 3 4
0 0 0 0 0 0 0 0 0 1 2 4 6 8 10 11 16 20 22 23 25 23 18 14 14 15 13 10 7 6 5 4 3 3 4 5 5 5 3 2 2 3 4 5 6 6 6 6 6
0 0 0 0 0 0 0 0 1 2 3 4 4 6 8 10 14 21 24 24 24 22 17 15 17 17 15 14 12 11 10 7 5 5 5 6 7 6 5 3 4 5 6 8 9 9 8 8 7
0 0 0 0 0 0 0 0 1 2 3 4 4 5 6 7 11 17 22 23 22 19 17 18 21 22 21 19 17 16 14 11 9 8 8 8 9 8 8 7 9 10 10 11 11 11 10 8 8
0 0 0 0 0 0 0 0 0 1 2 2 4 6 7 7 9 15 20 23 24 22 20 21 26 30 29 26 22 20 18 17 15 14 12 12 11 11 11 12 14 15 14 13 11 11 11 9 8
0 0 0 0 0 0 0 0 0 1 1 2 5 8 8 8 9 13 18 24 30 29 25 25 30 34 34 33 30 26 23 21 20 17 15 13 11 11 13 15 17 17 15 13 12 10 10 9 8
0 0 0 0 0 0 0 0 0 1 1 3 7 8 8 6 7 10 14 22 29 31 29 29 31 35 37 38 38 34 28 24 21 18 16 14 11 11 14 16 17 16 15 13 12 10 9 9 9
0 0 0 0 0 0 0 0 0 1 3 6 9 9 8 7 7 8 11 17 22 26 28 29 32 37 39 41 41 38 32 27 23 21 19 17 16 16 17 18 17 15 15 15 13 11 10 9 8
0 0 0 0 0 0 0 0 0 1 3 7 11 12 11 11 10 10 12 14 16 19 24 27 32 36 39 40 40 37 34 31 29 26 24 23 23 23 22 21 19 17 16 17 16 13 10 9 8
0 0 0 0 0 0 0 1 1 2 3 7 11 13 13 13 13 14 14 13 13 15 21 26 31 36 38 40 40 38 37 36 34 33 31 30 28 26 25 23 21 18 17 19 18 14 12 10 10
0 0 0 0 0 0 0 1 2 3 4 7 10 12 13 13 14 15 15 12 12 14 18 24 31 37 40 42 42 40 39 37 37 37 37 34 31 28 25 22 19 18 19 20 18 15 12 12 13